GFSNW_925_rhum_051.txt.gz
RH
93 94 94 91 88 88 77 71 82 73 88 81 77 83 62 68 50 45 47 48 49 47 50 51 49 55 48 41 38 45 48 58 78 68 50 47 45 44 42 56 63 53 54 33
90 94 94 91 86 88 89 63 55 72 77 77 71 60 55 54 46 45 44 47 47 46 47 53 46 47 50 44 42 43 43 70 85 75 58 52 61 50 44 45 64 85 49 33
90 93 94 92 80 70 87 62 81 68 53 58 52 51 50 52 52 46 43 44 42 45 46 42 52 51 54 48 46 54 40 51 68 61 64 61 85 58 52 69 80 48 38 29
91 90 92 92 62 61 85 58 79 76 84 63 57 57 54 53 52 47 42 43 40 42 48 45 48 48 52 48 59 45 44 99 88 53 53 66 70 62 59 81 59 70 38 30
93 91 77 92 72 61 58 75 82 69 67 60 60 62 56 55 56 55 46 45 39 37 39 37 44 44 44 46 47 45 50 89 81 68 53 58 78 58 54 59 58 50 45 45
95 77 74 89 88 63 58 68 76 88 67 57 57 53 54 57 55 59 53 43 42 42 45 44 42 34 36 38 44 47 54 78 84 70 58 61 67 55 54 53 50 49 56 40
93 88 81 89 93 74 66 75 95 88 73 60 59 65 65 61 58 55 53 50 47 52 43 39 38 39 41 41 42 39 52 61 65 77 75 80 50 47 43 45 42 42 40 35
86 92 89 95 91 80 70 73 74 85 60 54 56 66 74 69 56 59 54 59 51 41 48 53 58 58 52 50 46 45 40 46 63 70 59 44 34 49 55 58 54 40 43 39
95 90 94 87 94 85 74 77 81 72 75 53 62 70 70 79 57 59 62 65 55 60 58 60 77 69 50 62 66 52 46 43 55 68 76 65 54 48 42 45 68 40 40 43
92 89 94 94 88 87 85 78 77 68 68 39 53 50 75 78 78 68 64 69 69 65 67 68 66 64 46 61 59 71 63 58 71 68 72 52 33 51 47 78 82 53 51 53
89 91 96 95 96 88 93 80 80 69 62 53 45 41 52 47 71 93 82 72 70 73 69 64 57 52 52 53 48 55 60 64 65 62 77 76 37 55 62 58 53 51 52 57
84 78 94 94 94 89 91 79 86 87 78 57 61 57 51 46 40 56 80 92 69 54 59 50 48 51 53 49 62 46 60 45 50 49 50 36 39 46 50 54 55 54 55 58
78 81 97 94 93 88 94 96 84 96 96 66 61 60 52 63 64 56 66 81 77 67 66 65 54 59 46 58 54 54 49 41 53 51 42 40 40 45 52 53 55 54 55 58
80 96 98 91 94 95 94 99 93 88 72 94 56 54 51 53 56 59 55 57 67 75 83 78 64 58 50 47 50 48 45 51 55 52 46 50 44 43 46 51 53 56 57 59
84 95 98 86 94 99 97 95 85 84 82 85 76 63 59 57 58 56 58 56 61 92 100 92 72 62 58 59 61 57 48 49 57 54 40 42 42 47 54 56 58 56 59 60
85 93 86 87 95 92 90 74 77 89 98 100 89 55 56 58 76 63 57 56 59 96 100 97 74 62 65 73 61 42 38 41 39 44 47 51 53 56 57 58 58 55 58 60
86 87 93 91 78 93 78 77 86 80 100 92 85 80 57 87 65 58 61 67 78 84 100 97 86 77 74 72 68 41 38 43 47 51 56 62 60 60 59 57 57 60 59 59
89 89 92 73 84 92 90 94 96 93 99 96 91 82 76 78 83 74 67 82 86 93 97 92 89 83 83 95 65 51 45 52 55 57 57 59 58 58 57 60 61 68 65 57
86 90 79 94 95 74 82 95 95 98 99 97 90 91 96 93 84 83 81 78 96 92 97 100 95 94 96 71 62 54 54 57 57 58 62 63 68 68 69 68 68 68 67 63
90 79 82 79 86 86 91 100 100 100 100 100 92 83 95 95 93 98 98 95 96 100 87 93 97 97 67 61 60 51 51 56 62 70 76 84 91 82 73 73 70 70 70 68
74 71 78 95 84 98 94 100 100 97 98 98 93 100 100 95 99 97 88 98 98 100 99 96 95 84 73 66 66 63 64 65 67 69 67 67 71 82 86 84 83 77 68 69
76 78 87 97 91 98 100 97 99 100 94 100 100 92 97 94 97 94 97 100 98 98 96 100 92 70 71 64 64 64 61 62 64 69 76 83 84 88 90 92 81 60 58 63
90 84 96 95 90 98 97 91 87 94 100 100 99 99 96 90 90 96 98 100 98 93 99 87 69 81 71 67 64 67 65 67 67 77 92 93 85 82 90 98 93 81 63 68
80 86 86 92 88 84 87 90 100 100 100 100 100 99 99 90 100 96 100 96 96 93 91 80 62 75 65 65 68 67 70 80 89 71 72 78 69 64 67 85 94 90 75 67
81 87 84 89 78 91 98 100 100 100 98 99 99 99 98 100 100 96 97 98 90 76 70 73 83 74 71 70 72 75 67 67 70 71 70 70 70 67 66 69 69 71 87 82
89 92 88 75 88 86 93 99 100 99 100 100 100 100 100 97 100 98 94 88 79 76 93 83 75 71 67 67 69 78 71 61 58 66 74 76 72 72 72 70 73 71 74 92
93 87 74 76 85 83 76 76 76 77 93 100 100 100 94 99 99 90 83 90 91 94 84 77 71 72 65 58 61 73 87 70 56 64 74 78 82 78 68 74 85 88 76 72

GFSNW_925_rhum_054.txt.gz
RH
91 95 92 93 86 82 72 76 90 75 85 95 95 98 62 51 47 45 46 47 48 47 46 46 48 56 52 39 40 51 52 68 93 75 50 47 53 55 54 97 85 72 76 52
90 77 92 90 67 89 96 73 61 70 75 97 82 56 53 52 46 43 42 47 46 44 46 54 48 54 50 42 46 50 50 81 88 78 62 53 64 54 48 63 80 87 82 56
97 91 89 88 44 67 94 70 92 83 72 59 63 54 50 53 51 45 41 44 41 46 47 42 53 59 52 49 49 49 48 59 79 86 77 76 84 64 57 77 92 67 63 45
96 95 93 85 41 59 74 64 78 74 94 72 66 56 56 51 52 47 41 44 43 44 49 46 50 55 59 51 54 46 57 95 84 60 57 83 79 68 65 81 73 78 50 39
95 94 94 86 58 52 55 74 81 72 72 63 62 62 55 55 50 53 47 50 38 37 41 40 47 48 51 54 51 50 58 92 86 72 54 58 82 67 62 66 66 65 58 54
94 95 94 94 79 63 61 66 69 84 65 58 61 70 67 60 56 56 50 53 42 43 58 50 44 39 40 40 53 53 66 88 92 85 62 65 80 65 64 59 58 60 69 49
94 96 95 96 93 70 64 68 82 81 73 64 65 60 64 67 68 73 51 50 50 54 42 39 37 38 39 39 41 42 59 76 86 92 81 94 54 48 48 54 51 51 46 44
91 94 96 95 96 67 74 72 69 75 68 45 48 64 67 67 62 65 59 64 53 41 45 56 60 60 53 50 45 47 46 59 80 90 89 60 44 53 57 56 58 42 48 44
88 84 92 91 88 86 74 75 73 66 76 57 40 52 58 76 75 67 66 64 57 63 70 66 80 87 63 69 67 54 47 53 64 81 73 86 66 49 42 45 81 42 44 44
84 80 80 95 93 85 83 78 75 70 70 47 48 58 70 74 85 88 70 71 73 67 75 76 78 74 47 68 66 77 73 67 82 66 80 65 43 53 47 82 83 60 54 62
86 76 74 96 91 87 87 79 83 73 70 60 50 47 50 54 63 99 90 82 75 82 83 73 66 66 66 53 47 58 64 71 74 68 90 87 50 61 73 72 59 58 63 65
78 74 81 97 89 91 87 83 81 81 85 69 59 62 59 52 46 58 64 97 88 86 82 71 60 61 54 58 65 51 68 57 60 58 68 46 40 51 60 57 64 61 64 62
78 76 88 96 96 93 96 93 93 91 90 71 60 60 56 64 66 61 68 73 78 80 81 95 79 71 54 68 63 59 53 47 60 52 47 46 44 47 61 60 61 60 62 60
88 84 92 94 93 91 94 96 96 92 72 96 61 50 50 49 58 60 60 58 63 69 85 96 91 81 54 63 60 57 53 55 59 61 53 50 50 48 60 62 63 64 62 62
85 78 93 82 88 93 90 86 87 90 87 88 88 72 62 55 58 55 57 60 65 83 90 99 94 72 64 66 72 73 58 62 73 69 52 53 53 57 56 62 64 61 60 62
86 81 92 91 90 94 89 75 77 91 88 97 97 65 57 60 67 73 68 62 68 91 93 96 98 78 74 88 83 48 44 46 44 58 59 64 65 64 59 62 62 58 60 62
83 88 90 93 84 84 77 92 88 80 90 90 94 88 65 84 64 64 68 61 88 81 93 96 90 97 86 88 84 46 42 42 49 58 61 67 65 73 66 59 59 62 63 62
89 93 94 91 73 89 94 93 92 92 98 98 96 90 78 74 88 82 70 83 82 90 81 93 88 82 96 99 73 60 51 52 59 62 63 66 66 61 59 62 66 72 77 72
87 87 84 85 91 82 86 85 91 98 96 98 92 96 97 97 94 95 88 88 96 83 92 97 96 91 94 85 69 61 58 63 63 70 67 65 68 69 71 72 74 78 77 74
86 77 75 82 88 82 85 100 98 100 100 100 92 85 96 94 96 99 97 90 99 99 84 95 100 97 80 70 67 67 63 71 73 79 81 82 94 87 76 81 82 82 82 82
75 74 77 89 84 93 92 99 100 99 99 98 94 99 100 95 99 99 94 98 99 99 94 99 100 96 84 72 74 71 74 73 74 70 70 72 79 88 90 87 84 86 74 70
78 78 85 87 84 94 99 96 98 100 96 100 100 99 98 96 98 96 98 98 100 99 97 100 97 87 74 71 71 69 67 64 68 71 80 83 85 89 89 89 91 82 69 64
89 86 78 95 87 97 94 96 98 99 100 100 99 99 99 95 96 98 99 99 99 84 99 90 88 89 77 71 68 70 68 69 74 89 91 87 77 84 91 96 98 97 88 82
95 95 94 91 90 90 91 97 100 100 100 98 98 100 99 92 100 96 100 91 98 98 93 82 83 85 76 69 70 75 82 87 87 75 73 73 71 68 71 73 71 77 85 77
94 94 95 91 86 93 89 100 100 99 98 99 99 99 100 100 100 99 99 100 97 82 74 96 97 81 78 78 79 72 75 78 80 81 78 72 70 70 69 70 71 69 71 91
97 98 98 88 96 96 90 94 98 94 100 99 100 100 100 99 100 99 94 94 90 93 100 97 90 82 78 76 80 71 65 61 63 76 76 74 75 76 74 73 82 81 72 74
94 97 86 91 94 97 92 81 82 80 90 99 99 99 99 100 99 95 86 95 99 100 99 95 80 80 75 69 76 88 88 84 62 63 74 79 80 68 61 74 82 87 82 74

GFSNW_925_rhum_057.txt.gz
RH
96 96 93 89 91 89 68 89 95 78 87 99 99 97 83 59 52 50 56 52 54 50 49 50 64 69 58 42 43 63 54 81 99 92 68 71 70 76 70 93 85 74 82 58
95 96 76 57 72 92 96 97 86 78 86 98 93 60 58 57 56 46 47 50 48 48 49 59 56 66 54 50 54 55 57 80 96 90 68 60 92 73 67 65 77 84 79 62
97 95 77 64 40 55 85 93 95 88 91 80 72 72 62 66 52 50 43 46 45 48 50 44 58 66 54 50 50 46 50 73 78 83 71 75 83 68 63 76 86 69 75 46
94 87 82 66 40 52 67 91 80 72 97 86 79 71 59 59 64 51 43 48 48 53 53 51 58 63 62 54 48 49 62 83 80 67 75 80 79 72 72 78 66 74 56 49
89 86 94 86 53 49 61 92 91 84 92 81 76 69 74 63 60 54 57 53 52 44 55 49 58 60 63 65 55 55 68 93 86 64 62 72 85 71 71 73 65 66 66 67
94 82 92 88 63 55 70 74 73 91 79 70 75 76 72 72 76 56 52 57 64 59 61 51 46 45 46 52 61 65 74 89 91 87 65 70 75 70 69 67 66 61 76 51
84 95 91 87 69 71 69 72 78 90 88 64 50 66 70 73 74 81 71 65 62 55 49 42 41 44 44 43 49 54 79 78 90 94 83 88 50 52 56 58 57 62 57 52
84 80 86 93 79 72 77 70 82 89 97 70 54 50 70 73 74 75 67 73 65 66 51 63 65 70 57 53 47 48 61 74 86 93 95 60 54 59 58 68 62 54 56 49
78 80 89 91 95 77 76 74 70 84 91 76 59 65 58 83 93 82 78 68 66 66 80 74 86 93 72 72 68 55 55 54 72 86 84 89 62 48 44 50 83 48 49 50
79 76 78 95 89 82 84 82 74 81 89 68 55 64 66 68 84 95 84 86 79 68 84 85 88 85 60 81 87 79 76 71 84 76 83 66 49 50 49 83 70 55 54 57
81 74 76 95 90 84 91 79 81 73 88 83 60 55 60 61 70 91 83 90 88 89 85 87 81 77 70 62 61 70 79 80 83 74 90 92 54 61 74 66 60 64 68 69
78 76 84 94 97 90 91 88 88 85 92 83 60 64 66 64 59 67 68 94 85 94 98 87 78 70 69 71 76 56 72 66 74 70 74 50 56 56 62 62 62 62 66 68
78 80 95 87 97 94 95 99 89 92 97 90 70 65 51 60 64 62 76 76 77 88 93 97 96 85 69 77 78 63 54 55 62 55 48 49 48 58 66 62 62 60 60 64
81 86 86 92 84 84 88 92 88 97 98 100 79 55 55 52 59 64 66 64 65 76 84 99 98 95 68 74 66 68 63 62 64 66 58 54 52 59 69 67 66 66 65 64
83 86 75 86 86 90 86 80 91 91 92 96 90 75 66 59 59 59 61 61 68 84 86 96 96 92 80 78 80 83 64 66 73 77 59 56 57 56 68 71 71 69 65 63
85 82 77 84 90 85 74 84 80 85 85 96 99 71 62 59 61 58 61 66 74 92 95 95 95 84 97 99 94 64 50 56 58 61 64 70 74 70 63 71 69 63 62 62
86 80 85 89 90 93 81 80 82 80 87 97 97 94 70 78 74 73 78 67 86 90 95 97 94 94 93 100 99 55 48 47 65 68 70 71 67 75 69 68 65 64 66 68
87 84 86 83 79 80 98 92 93 95 95 98 100 94 85 74 88 87 81 91 88 89 83 78 95 88 92 95 85 71 52 59 69 73 68 72 73 69 67 69 70 72 79 80
86 80 76 74 87 89 90 86 94 97 96 99 97 100 98 97 98 92 83 84 94 86 92 89 94 100 98 84 84 74 63 67 71 74 75 73 71 73 74 74 76 79 84 84
79 70 76 86 91 82 87 100 86 92 100 100 97 87 97 97 98 100 99 95 99 100 88 92 94 93 75 76 77 78 71 70 74 81 82 81 94 85 80 83 86 87 90 90
72 81 92 90 80 84 94 98 97 97 99 98 97 97 96 97 100 100 99 92 96 99 98 96 99 98 89 76 76 76 78 77 77 76 78 77 76 84 90 89 85 88 72 65
76 78 82 80 74 93 98 96 99 98 95 100 100 100 100 98 98 99 98 98 98 97 98 100 99 94 79 77 77 75 72 71 74 75 82 84 85 88 86 87 92 92 88 76
83 83 85 83 92 88 99 94 97 100 100 100 100 99 98 97 99 99 100 100 99 88 100 96 89 89 80 77 72 73 72 75 86 88 86 76 75 83 88 93 94 94 96 92
93 94 92 92 94 83 93 96 90 91 99 99 100 100 100 98 100 98 100 94 96 100 98 86 84 87 82 75 72 76 88 88 81 74 74 76 78 82 86 82 70 69 75 92
92 91 92 94 88 97 89 89 96 93 96 100 100 99 100 100 100 100 99 99 97 89 85 97 98 83 81 83 77 78 89 88 92 89 89 80 73 73 79 78 76 72 72 80
94 97 100 89 94 96 88 83 91 97 94 95 100 99 99 99 100 99 96 98 94 99 99 98 93 84 81 83 78 71 71 82 94 98 97 81 75 78 77 78 80 86 81 74
99 99 91 96 97 95 94 88 88 86 85 94 96 98 99 99 98 98 91 98 99 99 99 98 88 84 81 76 84 77 70 64 63 84 87 78 75 66 55 62 72 87 86 84

GFSNW_925_rhum_060.txt.gz
RH
89 86 70 64 82 80 66 90 96 80 86 95 98 94 84 58 55 52 60 54 56 55 50 58 68 70 60 50 52 70 63 84 95 87 76 77 72 82 73 88 84 80 82 59
79 71 58 50 43 81 82 96 90 87 93 88 94 68 61 59 58 50 50 52 49 49 52 62 66 66 54 52 53 63 60 85 98 98 82 74 97 86 70 71 79 87 82 62
64 66 56 54 40 54 73 91 90 86 89 87 80 80 64 64 54 54 45 48 46 49 51 50 67 66 56 52 48 51 57 76 76 82 69 80 89 88 76 83 96 74 80 57
66 67 67 56 40 47 63 93 88 77 96 87 85 80 71 59 64 53 46 50 49 53 56 56 67 67 63 55 50 57 58 79 79 69 74 74 74 77 78 93 77 82 63 56
64 74 72 58 43 44 63 93 93 89 92 86 84 77 83 74 72 55 62 58 61 54 54 52 64 67 66 64 56 58 71 86 81 60 65 68 85 71 74 69 68 64 62 65
68 83 74 68 60 40 70 77 76 95 81 74 74 75 75 75 79 58 57 62 67 61 59 51 46 51 55 55 61 70 72 90 86 80 70 65 73 68 69 71 69 60 72 50
74 81 90 84 79 63 64 77 84 86 70 67 62 53 58 73 70 83 73 68 65 56 52 46 44 48 49 58 57 65 78 76 87 94 79 84 54 50 57 57 53 65 59 52
78 81 93 96 84 74 70 72 80 90 85 82 65 64 60 67 72 78 76 71 70 75 58 68 71 77 60 54 53 62 64 80 90 93 94 67 53 60 65 68 59 54 60 58
80 80 84 96 81 76 73 75 72 85 91 81 64 66 69 88 94 89 80 73 73 67 81 76 85 94 76 76 68 63 59 61 74 91 88 92 53 53 47 54 82 54 55 56
82 74 85 95 84 82 79 78 73 75 89 76 63 66 67 63 77 78 93 80 87 69 85 87 92 89 68 84 84 83 78 75 87 84 85 76 50 47 51 78 63 59 55 55
82 73 83 95 92 80 87 83 84 75 87 85 68 55 60 65 68 81 82 87 93 92 86 86 84 84 72 71 70 78 76 79 89 79 92 92 47 62 72 63 63 63 66 68
79 76 93 88 94 88 86 83 87 87 92 81 72 76 73 67 60 68 71 98 100 98 97 92 92 80 77 76 78 61 72 67 79 73 72 51 52 56 57 66 62 60 63 67
80 82 78 83 78 84 92 95 95 94 98 90 76 59 50 57 67 64 78 77 88 98 96 99 97 100 72 78 81 64 56 59 66 60 51 52 49 53 65 64 61 60 60 66
86 83 76 82 80 84 93 95 96 86 98 98 82 61 60 56 58 66 66 64 68 83 84 81 99 100 83 84 73 73 65 64 64 69 61 59 54 56 69 66 64 65 64 65
88 82 73 78 83 86 73 84 92 92 88 95 93 74 66 63 63 60 69 70 72 84 84 95 90 92 94 88 84 90 68 65 72 73 58 56 54 51 65 75 72 73 71 67
83 81 76 82 89 80 76 88 76 83 78 97 99 70 67 60 61 66 66 68 80 89 92 92 92 86 98 98 100 71 57 56 58 57 59 61 69 68 69 75 75 68 68 63
86 83 85 92 88 85 77 85 82 86 90 98 97 94 70 77 76 79 83 76 90 87 92 93 95 91 94 94 87 75 66 64 57 62 74 73 70 72 70 71 69 66 69 71
85 86 83 82 82 86 92 89 93 93 93 97 97 96 86 77 89 88 83 91 91 90 86 86 97 90 89 93 77 66 67 68 69 71 69 69 79 76 75 73 72 73 78 81
84 80 76 79 79 86 88 89 94 96 94 93 97 100 97 96 98 92 86 89 97 84 94 96 91 91 93 78 63 60 64 74 71 74 74 75 77 78 77 76 78 80 83 85
77 71 75 94 87 82 85 99 99 98 96 92 99 87 96 96 98 99 90 96 92 97 87 89 97 92 73 86 85 83 79 74 78 83 84 82 92 83 82 82 87 88 91 92
69 81 93 92 78 76 93 92 96 93 92 87 93 96 94 92 100 100 100 99 99 98 98 99 99 100 94 87 82 78 76 76 78 78 83 80 77 84 86 88 87 89 80 73
69 74 78 73 75 92 94 96 97 95 97 96 99 98 100 99 98 99 99 98 97 99 96 100 95 92 84 85 81 83 90 83 80 79 83 87 86 86 85 88 93 94 94 90
78 76 85 88 90 83 88 92 96 99 98 95 94 97 99 97 99 99 100 99 99 90 100 97 93 88 84 79 73 76 77 87 88 84 77 76 82 82 86 88 72 70 85 89
91 80 63 84 99 89 90 96 85 91 97 94 91 97 99 99 100 100 100 93 98 99 98 92 85 87 88 80 73 79 90 81 77 74 77 87 92 90 86 89 78 72 73 88
94 80 61 98 87 97 94 86 96 92 96 98 94 96 100 99 100 99 99 99 97 92 91 99 98 91 84 82 78 85 90 90 95 90 93 98 76 75 76 82 86 82 75 72
94 97 91 92 96 95 99 96 92 94 81 84 98 96 97 97 99 99 97 98 95 97 99 99 97 89 84 82 79 75 87 98 96 98 100 98 79 78 78 77 69 84 86 80
100 100 91 94 97 90 97 88 88 91 92 88 86 98 92 97 98 100 97 98 99 100 100 94 91 89 85 81 81 72 64 68 89 96 99 98 97 85 54 51 60 82 85 86

GFSNW_925_rhum_066.txt.gz
RH
50 59 79 90 84 44 58 82 94 88 90 94 96 93 82 64 61 70 61 60 61 68 88 86 78 81 71 68 71 72 67 80 90 84 78 74 74 85 81 94 88 90 87 74
53 54 57 68 57 42 67 91 91 81 91 90 96 78 68 63 59 54 53 56 54 52 59 72 71 69 58 61 64 75 71 90 97 93 88 83 98 88 79 77 83 93 88 72
56 51 56 56 45 39 71 88 87 82 90 89 83 83 77 65 57 54 49 52 50 51 56 64 74 69 60 54 54 60 60 81 76 86 67 83 99 82 90 86 94 77 80 68
56 52 54 54 41 37 54 91 90 90 92 88 86 83 83 77 67 55 56 55 64 59 59 62 73 70 64 58 65 64 60 81 87 72 69 84 88 85 77 96 87 89 66 67
58 53 59 53 40 34 63 72 76 87 89 87 83 85 88 90 84 69 66 62 69 65 56 54 65 69 67 63 58 65 67 85 79 61 68 77 86 78 89 84 80 84 78 82
59 60 56 54 43 39 67 86 89 87 78 69 83 74 62 82 76 74 75 75 73 62 68 63 57 60 60 58 65 74 71 87 85 81 79 68 75 67 71 85 86 82 92 66
60 64 60 59 55 43 59 84 83 65 60 67 72 63 59 64 66 79 75 75 69 70 79 60 51 60 64 61 64 68 79 75 81 85 78 83 52 46 52 65 60 74 71 65
59 66 63 63 63 62 62 77 78 80 79 81 65 66 72 79 77 82 81 82 83 85 67 68 66 74 59 61 62 70 64 78 92 92 95 70 49 62 65 65 60 56 63 58
60 66 66 62 64 63 64 75 74 81 75 78 71 72 68 78 90 78 82 76 71 72 76 73 89 83 72 73 72 69 66 62 72 94 90 91 51 54 53 56 79 52 62 64
59 63 70 68 66 64 64 77 74 72 86 77 72 75 72 68 73 76 76 81 80 83 83 86 90 85 71 83 85 85 84 81 93 89 90 75 54 52 55 78 60 66 66 68
66 66 76 79 71 68 68 82 82 77 93 86 73 65 79 83 77 81 77 81 94 98 88 91 89 88 83 78 73 82 86 92 97 89 94 88 50 60 72 61 64 66 65 64
71 68 76 81 74 74 72 87 94 88 86 80 80 79 72 76 68 81 82 96 100 100 100 96 93 87 87 80 83 72 79 73 81 80 77 52 46 57 56 68 72 63 63 62
71 70 76 82 79 80 74 90 83 84 92 81 68 64 61 61 66 71 85 86 89 100 100 100 100 92 79 86 87 72 63 64 69 65 53 60 54 54 59 62 68 59 59 64
76 80 91 84 87 78 70 78 86 83 87 93 68 61 64 68 69 69 70 74 81 91 93 86 96 100 95 90 86 87 74 66 69 74 63 59 54 59 60 56 66 63 64 65
92 80 85 90 86 68 68 78 82 80 79 91 90 70 59 66 66 70 74 73 79 88 87 90 85 84 92 91 92 96 82 73 77 74 57 57 58 53 57 63 67 72 69 69
88 79 82 92 84 77 73 89 82 80 79 95 88 71 74 70 70 76 79 79 87 94 90 92 85 77 90 98 91 70 70 65 63 72 72 65 62 62 68 72 72 73 74 69
86 82 91 92 84 70 74 82 84 83 87 93 95 94 68 78 78 84 84 81 91 89 94 95 92 89 94 97 98 58 51 49 46 67 76 78 71 76 76 74 76 75 77 78
88 92 91 89 79 84 81 91 92 89 86 81 96 94 84 81 95 91 86 94 95 92 90 92 96 91 92 96 75 61 51 66 70 66 73 76 78 74 75 77 75 77 81 81
95 81 78 81 80 83 92 93 95 86 82 95 93 95 97 83 91 98 94 90 95 89 96 93 93 91 90 71 63 63 85 90 85 90 79 78 80 82 79 77 78 78 84 84
79 74 75 96 91 86 94 95 87 96 95 89 94 92 92 90 91 100 97 94 94 99 88 92 90 83 75 71 71 82 80 80 85 92 88 82 87 86 80 83 88 89 91 88
69 84 94 99 91 84 94 94 90 97 90 93 85 92 95 88 98 94 94 99 98 98 98 98 96 93 84 85 88 87 92 85 83 85 90 90 87 85 86 88 90 92 89 84
62 72 79 76 83 93 85 97 92 78 92 93 95 96 96 94 95 98 99 99 98 95 99 100 92 86 86 88 81 78 88 91 92 91 89 90 94 97 96 98 94 83 92 90
64 69 84 87 89 93 83 100 99 93 97 98 95 92 92 91 89 90 98 99 96 96 99 92 92 87 88 91 87 78 81 89 98 99 98 98 98 99 98 96 99 98 74 82
84 77 81 80 97 94 90 91 94 92 92 92 90 93 93 93 99 95 99 90 99 99 97 95 97 98 95 91 85 84 86 80 90 98 95 95 96 97 99 99 98 94 90 83
86 77 66 94 84 96 97 97 95 98 76 85 91 83 87 89 98 95 96 98 98 94 93 99 99 99 99 96 85 84 91 94 98 98 98 97 91 85 82 88 78 87 94 91
88 86 80 90 94 95 100 98 91 97 77 87 78 86 93 85 98 98 88 97 94 94 99 100 100 99 99 94 84 86 84 98 97 98 100 99 96 86 83 79 58 68 83 84
99 100 90 93 97 90 95 98 96 88 89 97 96 93 87 93 98 98 95 97 97 98 99 99 98 96 92 89 87 84 82 99 99 99 100 99 97 98 75 60 44 52 67 72

GFSNW_925_rhum_069.txt.gz
RH
47 48 48 48 46 51 68 82 98 91 95 94 97 96 81 66 66 73 65 61 61 79 89 91 83 80 73 73 65 69 66 79 94 83 75 77 79 83 78 88 86 87 78 67
51 48 46 46 43 43 65 90 90 77 86 92 96 77 70 66 62 56 55 58 54 51 70 75 72 72 60 70 66 74 70 88 93 94 79 82 91 90 80 78 81 95 88 68
52 47 44 46 42 47 65 84 85 83 91 89 86 84 82 68 59 56 51 55 54 51 57 68 74 70 65 58 57 64 61 79 76 82 68 84 97 93 86 80 90 73 75 62
50 47 47 47 38 52 51 87 85 86 92 87 87 83 84 83 78 64 61 57 68 61 63 64 73 71 65 59 64 63 64 82 87 69 68 86 88 85 86 97 77 86 68 68
50 52 49 46 38 40 58 72 80 89 89 87 85 82 89 88 82 80 69 65 69 65 58 57 71 71 67 64 60 65 66 87 78 66 72 81 89 81 87 81 74 73 76 86
51 55 49 44 37 39 69 90 92 84 77 70 85 72 59 78 71 79 76 81 76 68 78 74 66 61 62 60 65 73 74 84 84 82 78 66 68 67 78 84 83 74 86 67
56 57 54 48 42 36 51 79 75 66 64 70 73 63 59 64 68 74 71 78 72 80 86 76 55 63 68 64 73 67 80 74 76 84 75 86 53 48 55 68 64 81 78 70
62 58 58 55 53 48 48 72 71 72 83 77 65 66 75 73 71 83 85 88 86 80 79 66 67 73 59 65 70 70 66 76 92 88 90 68 52 63 66 66 59 58 65 60
65 63 61 58 58 60 57 72 69 73 79 86 68 70 65 76 83 67 69 66 67 80 74 79 91 84 72 73 75 74 69 68 72 92 91 88 52 54 55 54 79 53 64 69
63 65 60 58 61 61 56 79 72 70 89 81 70 77 76 71 77 77 74 73 86 84 88 98 92 83 71 83 85 87 83 82 92 89 90 79 55 49 57 77 57 54 67 70
61 72 66 58 64 64 60 91 83 72 93 87 70 69 81 84 80 81 74 87 87 99 100 94 90 85 85 79 73 83 88 94 98 92 97 90 54 64 70 57 61 66 68 66
62 72 67 59 69 66 69 94 86 79 84 86 81 78 70 74 68 83 87 94 96 100 100 97 94 87 87 83 84 74 82 74 83 82 79 53 48 54 56 66 71 65 65 61
69 73 64 64 70 66 64 85 80 74 90 76 68 66 62 66 70 73 80 88 87 99 98 99 100 86 81 88 88 74 66 66 72 64 52 62 58 56 58 55 68 65 65 65
80 88 67 74 73 65 63 74 81 71 85 83 66 64 66 69 70 72 72 78 85 89 96 86 98 97 99 94 87 91 77 69 72 76 65 60 54 56 56 59 63 72 66 65
81 91 75 78 62 64 69 79 84 80 72 83 80 69 62 69 70 73 75 74 81 88 87 88 82 88 92 89 94 99 86 78 80 81 64 69 69 62 62 67 68 68 74 70
80 95 88 78 64 65 68 87 83 82 78 88 86 71 70 74 73 78 81 82 89 93 90 90 88 79 95 92 92 70 77 70 69 75 74 78 72 76 72 78 75 75 77 72
91 95 92 88 78 71 73 81 85 83 81 89 91 92 67 72 78 84 84 82 90 88 95 94 93 90 93 95 97 57 56 50 65 67 65 69 64 77 84 84 83 79 81 80
97 96 96 79 74 79 84 93 88 82 77 82 94 91 87 80 94 92 87 94 93 93 92 93 95 88 93 98 78 64 50 74 84 80 79 82 71 76 81 77 77 79 83 82
98 98 82 78 74 85 92 91 89 76 71 98 94 96 93 80 90 98 94 89 94 91 97 96 90 88 93 70 60 56 68 87 84 82 86 90 87 85 80 78 81 83 87 87
91 72 73 97 99 93 88 83 88 93 95 93 95 93 92 87 90 99 98 96 93 100 87 93 92 80 72 70 67 69 83 91 86 92 95 96 93 90 85 90 87 88 91 92
70 85 98 100 98 86 90 91 93 95 91 92 90 92 99 88 94 92 98 98 97 98 97 95 96 90 85 82 87 83 86 90 86 86 89 92 94 94 89 91 95 95 94 92
64 80 80 80 84 89 86 97 90 84 93 95 89 96 92 92 93 100 96 100 99 96 98 98 94 86 83 89 88 85 85 91 96 97 96 98 98 99 98 98 98 99 99 99
59 74 86 85 93 94 83 100 97 93 99 97 97 87 91 92 98 100 100 98 95 98 97 90 95 90 88 95 88 85 82 88 96 99 98 98 98 99 98 98 99 99 99 88
87 85 91 85 97 93 89 90 92 89 98 97 78 75 72 93 99 98 99 88 100 98 97 94 96 99 99 99 100 100 88 84 89 96 96 98 98 98 99 99 97 95 98 98
84 83 80 88 84 97 98 97 97 96 86 86 86 83 79 89 97 96 97 98 92 93 93 97 99 99 99 98 99 91 86 92 96 98 98 98 88 84 85 83 82 84 92 94
86 86 86 86 90 98 99 99 96 96 73 85 85 88 87 81 97 98 82 85 96 89 98 97 98 100 97 96 89 85 85 90 99 99 99 99 98 84 81 68 54 60 86 84
92 96 82 86 95 92 99 89 92 88 89 99 97 100 92 92 98 98 87 92 92 91 96 98 91 95 94 86 86 84 83 87 99 100 99 99 99 100 86 67 50 49 55 77

GFSNW_925_rhum_075.txt.gz
RH
43 36 45 46 63 48 86 68 80 97 95 97 87 85 59 58 54 52 54 51 51 51 51 51 52 70 56 49 44 52 45 56 83 66 58 54 61 48 40 57 56 48 55 38
42 38 46 45 56 49 73 59 82 92 99 86 83 56 57 55 53 50 50 49 48 46 50 55 51 54 55 56 47 46 44 67 89 78 59 56 65 48 46 41 65 79 54 34
40 40 46 43 48 41 79 55 84 76 90 63 59 54 53 58 53 46 44 44 43 44 48 47 56 54 56 57 50 58 46 50 60 62 57 49 69 50 48 64 83 54 49 38
38 45 44 43 43 39 71 47 44 62 85 61 55 58 54 54 57 48 43 48 46 42 50 48 54 52 55 56 65 50 50 96 86 50 56 64 68 60 54 72 68 71 46 40
41 47 43 42 38 52 57 44 45 50 56 56 55 68 61 55 63 56 52 47 50 44 46 49 52 50 48 51 53 52 51 87 70 65 57 61 73 57 52 53 54 57 49 47
46 45 43 40 36 58 46 61 57 42 57 52 51 49 56 61 59 60 58 57 47 51 68 60 50 45 43 44 50 53 61 68 77 73 56 55 60 47 49 51 48 48 57 42
48 43 40 36 37 49 52 54 45 40 46 41 46 51 55 58 60 62 63 60 51 68 55 54 49 42 43 43 47 47 63 79 90 83 67 80 45 38 38 40 39 37 41 40
49 42 39 35 38 44 61 59 41 31 41 41 50 50 51 52 54 64 71 74 59 58 56 53 57 55 55 52 49 48 48 62 74 78 62 44 37 42 45 46 40 36 38 36
44 43 40 37 39 43 61 68 56 36 40 43 41 47 46 47 50 58 61 51 64 62 64 59 61 59 47 59 62 53 48 46 62 63 71 59 42 42 37 40 49 41 43 48
50 45 41 42 44 44 50 57 53 40 47 52 41 41 44 45 41 43 54 58 72 81 74 91 67 55 44 52 55 67 64 61 70 66 72 49 33 40 39 55 49 41 46 48
60 46 45 49 49 45 47 82 58 50 50 61 51 52 51 52 48 43 56 69 72 83 90 81 71 52 47 48 42 51 56 63 66 63 89 72 38 42 47 46 41 42 42 42
61 49 49 50 51 49 39 71 71 60 52 64 61 63 67 66 58 49 57 78 86 83 84 84 69 53 52 46 52 50 56 44 52 46 49 40 37 40 37 38 40 42 46 42
62 52 58 64 55 49 35 70 68 50 52 54 50 56 66 68 71 69 55 64 76 82 84 85 84 73 59 51 47 51 47 46 51 49 36 38 36 35 39 43 46 47 47 48
80 64 77 74 60 49 39 63 69 64 50 59 65 64 65 74 72 70 67 65 67 61 61 68 74 74 77 61 66 61 49 50 49 48 40 37 40 42 44 45 48 50 47 47
93 96 78 62 52 47 46 52 53 50 71 67 69 61 68 69 69 67 63 58 58 62 61 59 64 63 64 56 63 62 47 48 53 50 50 54 45 45 43 45 46 57 61 61
92 95 79 54 52 46 35 58 60 50 77 74 85 65 64 68 67 65 63 62 62 65 62 59 54 52 64 69 58 42 45 51 43 51 47 50 48 46 45 50 58 62 66 65
90 96 80 60 54 43 69 69 82 55 60 73 89 84 65 67 65 64 64 65 66 61 66 64 64 60 64 64 62 40 42 37 43 50 59 60 51 61 56 60 59 62 66 65
97 97 81 61 53 64 84 97 70 57 68 62 92 92 81 72 79 84 71 72 69 68 67 66 65 60 64 71 46 41 40 49 54 58 60 65 69 69 67 62 63 75 75 74
96 88 59 51 64 74 90 70 63 60 76 78 78 91 90 72 79 84 81 70 76 73 72 68 65 59 74 54 42 41 51 61 65 67 66 69 79 86 80 78 70 72 72 76
67 60 68 86 98 74 88 79 71 74 74 70 74 65 78 71 78 94 81 76 73 85 71 71 77 72 52 49 53 69 66 66 67 80 83 89 93 96 95 86 83 87 86 85
72 76 95 100 98 86 74 83 77 77 85 67 71 65 76 65 71 74 78 83 82 80 81 79 77 71 60 66 69 63 60 62 67 76 87 94 96 98 97 96 93 97 99 98
70 87 93 96 79 80 82 84 84 83 77 82 74 71 66 73 69 76 85 90 91 82 79 83 72 54 64 68 72 67 62 62 66 76 88 98 98 98 98 98 98 99 99 94
67 77 96 81 89 87 80 85 86 89 84 86 77 82 68 78 77 78 81 95 83 90 87 71 56 72 70 75 85 76 72 72 70 72 90 99 98 99 99 92 91 92 88 91
84 88 82 85 86 77 78 80 88 83 85 84 74 74 71 68 83 76 88 76 81 83 79 71 51 66 74 83 86 95 90 80 72 72 78 97 98 98 99 100 87 74 67 74
91 93 74 82 86 88 91 96 93 83 73 75 77 75 63 79 89 79 86 91 84 66 72 65 75 81 86 83 87 86 75 64 64 67 76 90 99 93 90 99 83 71 61 62
94 85 84 77 87 99 96 97 96 78 74 72 71 80 80 81 76 84 82 69 74 73 86 83 84 84 82 84 82 74 61 60 58 65 87 99 97 96 92 94 90 62 58 59
92 93 68 87 88 90 86 75 69 66 68 82 83 83 77 80 83 80 68 77 79 94 89 85 84 83 79 80 80 79 75 67 60 56 71 90 98 99 100 98 99 90 56 60

GFSNW_925_rhum_078.txt.gz
RH
100 96 85 68 49 46 85 69 96 99 86 100 89 88 67 57 53 50 54 52 53 50 50 54 52 66 56 46 44 56 54 74 94 85 66 60 64 58 54 87 70 69 73 58
100 96 91 66 45 54 83 74 94 96 99 94 92 64 55 52 54 52 50 50 47 47 50 62 55 58 56 48 47 51 47 76 98 88 64 61 70 61 59 55 75 80 83 56
100 96 78 51 42 57 69 68 94 96 98 76 80 59 58 60 54 46 43 44 44 46 51 46 59 64 58 56 49 55 57 59 72 89 65 66 78 60 54 72 94 71 69 50
99 90 55 49 42 61 78 68 68 70 92 83 67 51 49 54 59 49 44 49 47 44 53 51 56 59 65 59 63 52 58 94 78 53 55 69 64 61 56 74 67 82 59 50
97 83 51 48 44 56 77 61 60 60 57 52 60 61 62 52 61 53 51 53 46 45 56 57 61 52 55 61 62 58 58 94 75 72 54 60 72 66 61 58 57 62 61 63
97 76 57 46 52 65 65 56 52 59 58 57 59 61 56 52 59 58 57 52 49 52 72 64 54 48 45 47 55 61 67 80 89 85 58 60 77 63 64 59 54 55 69 55
94 79 52 44 46 49 51 51 47 58 56 54 53 50 58 59 60 62 65 60 56 69 55 55 57 46 43 43 48 51 67 80 94 94 73 95 55 42 43 50 48 49 45 45
93 66 46 44 42 56 52 50 56 50 50 51 51 52 59 58 64 69 65 69 60 64 60 60 62 62 58 54 48 49 60 74 97 98 96 66 47 44 46 49 45 39 39 39
81 59 47 44 43 59 44 47 50 58 52 53 44 53 57 63 66 68 65 53 65 69 72 66 70 80 56 70 70 52 50 54 80 91 86 75 57 46 38 40 60 48 46 52
70 51 46 42 48 85 46 47 50 52 62 56 50 52 54 46 45 64 62 64 72 74 68 80 84 65 51 67 61 76 72 66 84 83 84 71 48 44 40 59 70 50 49 51
68 49 46 41 54 61 51 60 56 55 67 69 52 50 54 54 53 58 65 80 78 86 87 85 80 67 57 49 43 55 66 79 80 74 88 89 43 44 51 58 46 48 54 54
54 50 42 42 45 56 52 65 57 48 71 71 62 67 68 68 59 62 69 83 86 91 93 93 84 66 59 52 62 51 66 58 69 59 68 43 42 46 43 47 50 58 59 56
52 47 62 48 46 58 62 63 47 46 69 68 61 69 68 66 69 62 72 76 75 81 87 87 80 73 78 66 60 52 48 50 62 55 47 45 41 44 53 54 57 57 56 57
53 60 59 46 52 62 50 53 59 52 70 82 78 63 67 68 68 66 64 70 66 67 80 72 82 75 79 79 80 75 63 55 55 58 50 49 57 57 55 53 49 52 62 65
56 62 52 51 65 61 49 50 56 59 79 86 84 64 66 67 65 61 58 56 63 76 80 76 78 71 73 70 70 77 57 62 71 73 61 64 58 55 52 55 57 66 75 78
71 57 56 57 61 41 44 75 46 59 62 90 86 69 66 65 63 62 64 64 71 82 82 76 66 55 72 83 74 49 48 50 47 54 50 58 60 59 63 69 70 66 72 73
55 59 67 60 51 45 86 86 73 58 65 92 94 92 72 64 63 68 73 66 78 79 83 79 76 71 74 76 82 53 45 42 49 55 64 67 71 78 75 73 70 64 66 71
68 84 59 52 48 65 73 71 55 55 63 85 92 96 90 72 83 82 76 81 76 77 83 78 79 77 78 89 61 44 44 55 58 61 69 71 72 75 80 78 78 81 84 80
69 56 48 44 56 82 74 58 56 59 74 96 96 88 89 78 86 86 80 72 84 80 79 72 74 76 90 73 53 39 56 62 68 71 71 72 80 82 89 91 84 87 87 89
58 53 71 95 99 66 63 57 81 92 86 82 94 80 91 82 77 86 83 83 80 82 76 80 78 81 63 53 50 63 70 67 66 81 83 81 91 97 97 98 92 93 96 94
69 91 99 100 92 77 83 91 91 88 94 78 82 81 94 73 80 82 80 82 89 78 88 83 71 91 71 76 75 70 66 63 65 71 73 82 92 99 97 98 98 97 98 98
75 89 89 89 82 90 86 93 91 92 89 90 92 86 81 85 75 67 88 91 87 79 86 81 86 70 75 78 73 70 67 63 65 70 75 81 84 96 98 98 96 98 99 100
79 83 92 91 95 93 81 90 93 98 91 91 90 94 88 90 72 70 81 91 82 87 90 78 84 83 80 83 86 82 86 76 75 74 74 83 90 99 98 98 98 99 97 99
93 85 80 87 95 89 89 90 90 96 92 88 87 90 91 78 87 74 83 69 84 80 92 88 79 84 87 89 82 88 83 84 84 76 75 78 84 87 92 100 99 96 92 94
90 89 80 92 97 96 98 98 96 93 79 83 88 91 81 93 92 89 92 91 87 83 86 93 96 90 90 91 82 81 87 80 71 68 74 81 83 84 84 86 97 89 70 62
90 89 93 85 94 99 98 95 95 82 82 89 92 92 93 92 93 96 93 89 88 86 95 98 96 90 91 84 82 85 80 66 65 66 66 84 84 80 85 89 92 96 74 60
89 98 86 94 89 94 94 85 82 75 87 96 95 88 86 93 95 91 85 89 91 100 99 97 90 89 88 85 86 87 84 81 75 68 61 67 81 83 83 93 92 100 99 89

GFSNW_925_rhum_081.txt.gz
RH
97 100 100 100 76 62 95 79 99 100 86 98 93 80 83 57 59 54 58 55 56 52 51 66 64 75 63 54 47 60 72 81 94 81 73 65 69 70 63 87 71 79 80 57
93 100 100 92 82 79 85 91 97 100 99 96 90 82 67 59 63 63 62 58 50 52 55 66 66 70 61 48 50 56 55 83 96 88 70 66 81 67 66 66 74 80 80 57
99 100 100 92 72 69 64 90 98 99 99 92 93 83 72 72 55 53 45 49 46 49 61 53 69 74 61 60 60 55 55 71 75 85 69 76 85 68 68 74 92 73 79 50
100 100 99 90 52 70 64 81 92 82 97 89 84 86 66 71 69 53 47 51 51 51 58 60 70 70 71 62 60 54 67 86 76 60 63 72 70 67 67 80 70 81 61 59
100 99 99 78 52 88 76 78 85 79 87 78 91 87 67 66 64 59 56 59 52 52 74 68 67 65 68 73 65 59 66 90 72 69 59 64 72 69 70 70 62 67 63 66
100 100 97 76 53 86 75 62 56 64 72 78 83 79 64 63 69 63 66 60 59 78 78 71 64 58 50 52 70 72 73 83 90 90 63 64 73 69 71 67 59 60 74 54
99 99 98 90 53 55 51 50 58 66 68 73 71 62 60 70 67 73 79 72 74 73 61 59 58 55 46 51 54 58 74 86 93 96 77 95 58 42 49 62 55 56 54 46
100 99 94 79 47 51 46 50 58 62 65 63 62 67 74 72 75 76 81 71 65 74 68 69 72 73 62 58 56 55 74 89 97 99 96 70 52 44 46 44 46 45 46 48
100 98 96 56 47 59 47 51 50 66 65 63 55 68 67 84 83 79 74 56 69 76 81 76 79 88 74 82 72 59 64 73 88 99 92 85 53 47 40 41 75 54 60 65
100 98 94 62 49 71 41 46 50 54 70 68 60 63 65 56 69 87 74 74 76 75 84 88 89 75 57 86 88 85 80 76 91 92 90 76 50 44 42 55 58 56 57 59
99 95 96 55 71 64 44 54 58 56 84 78 72 74 67 60 69 83 73 82 84 88 83 75 85 83 67 55 67 76 76 81 87 86 94 88 46 44 52 60 57 64 62 62
98 98 61 47 87 78 43 60 57 50 77 78 68 72 70 71 71 80 84 82 92 94 95 93 89 77 72 65 70 55 70 66 78 71 73 50 45 55 59 61 66 64 62 62
94 95 47 78 84 54 43 55 47 48 79 82 80 80 66 59 64 64 88 86 82 89 90 93 92 78 88 75 73 63 56 57 66 58 53 51 62 61 58 54 54 54 62 68
93 95 93 57 68 49 47 46 52 49 79 92 84 65 69 67 62 62 68 75 71 81 88 80 90 88 84 86 80 80 70 59 64 65 70 69 64 61 56 57 57 64 72 73
96 96 72 64 55 48 45 54 62 68 69 96 92 72 68 65 60 59 59 64 78 86 84 86 84 84 81 82 79 85 70 69 76 81 65 68 66 62 68 73 73 72 75 79
95 90 50 45 44 47 43 55 58 53 53 91 97 71 72 66 65 65 70 71 83 90 86 85 77 62 80 89 88 60 55 51 53 64 55 64 64 65 80 85 81 76 74 77
74 64 52 53 55 50 80 72 63 66 60 91 94 88 77 68 69 77 80 74 86 86 90 86 84 79 80 86 90 58 50 50 55 62 66 71 76 83 86 86 84 80 76 78
76 68 62 63 54 52 59 59 57 61 71 86 90 98 93 74 91 83 83 84 85 89 91 85 84 83 85 93 74 53 53 57 67 78 72 74 74 73 71 80 86 89 88 90
70 68 63 57 52 74 54 52 58 63 66 96 93 88 93 81 92 92 80 81 95 83 87 77 77 84 93 75 69 52 61 64 66 75 74 82 90 88 89 92 96 91 95 93
54 52 70 94 89 61 59 56 73 88 89 88 94 89 96 89 80 78 85 87 90 87 83 84 77 83 70 65 53 55 66 70 68 80 84 83 83 81 89 90 96 98 100 98
62 98 99 95 88 76 82 91 85 87 90 88 92 88 93 78 86 88 83 91 84 88 91 88 89 92 77 69 71 78 73 66 68 74 72 78 85 91 94 90 93 94 95 95
66 86 87 88 88 93 81 96 90 91 90 95 94 91 90 90 78 82 72 85 74 82 83 81 88 78 71 84 78 72 73 66 67 72 75 76 83 85 89 91 92 95 99 99
77 83 93 91 95 90 73 85 93 98 95 96 95 97 95 91 69 69 67 76 88 84 83 84 87 82 85 85 87 90 87 80 77 78 77 78 81 87 93 94 93 99 99 93
91 87 92 82 85 88 83 83 91 94 93 86 90 95 91 90 85 71 81 72 76 83 89 93 83 87 88 92 89 86 83 79 88 88 81 82 82 80 79 84 92 99 100 89
89 84 67 98 91 99 99 99 96 96 78 85 90 93 86 98 92 94 84 87 84 85 87 90 97 88 92 93 90 88 87 91 92 76 76 76 82 83 78 77 83 90 98 85
89 88 91 92 96 100 100 96 95 83 82 90 90 94 93 95 95 96 98 90 95 85 93 98 97 93 90 91 89 88 87 87 74 70 70 71 77 87 81 78 79 89 97 96
90 96 91 95 96 98 95 84 85 82 85 91 92 81 81 92 96 97 91 91 87 98 97 99 91 88 89 89 88 87 88 89 85 82 78 67 66 75 92 93 84 79 92 100

GFSNW_925_rhum_084.txt.gz
RH
98 100 82 94 100 88 81 89 98 98 82 96 95 87 74 68 62 57 58 58 60 49 62 71 76 85 70 58 50 62 72 79 97 84 72 68 70 70 65 84 69 84 80 56
100 99 95 96 94 90 81 97 98 100 93 98 92 73 85 66 67 66 66 62 53 56 58 69 73 73 62 57 55 60 65 83 97 89 70 66 76 68 66 69 77 82 73 54
89 93 96 100 92 87 69 96 98 92 100 93 85 95 82 74 56 61 54 51 49 54 63 57 74 76 69 62 61 56 57 77 73 83 70 76 85 74 71 73 90 74 73 51
93 98 98 99 95 69 62 90 96 82 95 94 86 86 75 78 73 54 49 53 53 55 67 64 79 75 72 65 61 57 66 85 78 63 69 73 72 69 77 83 72 79 60 62
98 100 97 100 90 93 73 89 95 86 91 81 84 86 85 76 66 62 60 60 56 62 68 67 73 75 73 68 64 61 70 94 71 67 61 66 71 66 71 72 67 71 68 68
97 100 100 100 88 88 76 70 65 72 85 95 89 93 77 70 72 72 65 57 75 78 78 69 64 60 56 65 70 72 74 84 89 89 70 66 73 65 70 68 66 62 75 54
100 100 95 98 96 84 49 54 65 68 87 89 77 72 66 73 67 81 79 70 73 74 64 60 54 52 57 60 61 65 80 90 93 96 78 93 57 44 51 66 60 59 59 50
99 99 99 93 96 77 43 52 59 64 80 68 69 75 84 83 82 84 81 72 73 77 63 72 73 77 64 64 66 64 76 94 92 99 96 71 58 45 46 46 61 63 53 52
99 95 99 96 93 70 40 55 52 65 69 68 64 76 76 87 91 84 75 64 76 74 80 75 82 94 78 84 72 67 74 81 80 98 96 87 54 48 43 40 71 65 67 66
100 100 100 93 96 59 39 57 50 53 74 82 71 74 72 76 84 91 78 80 73 71 87 92 88 78 69 91 89 85 81 81 96 96 91 78 55 46 42 55 57 60 62 65
96 100 96 88 94 58 40 67 57 54 88 82 79 78 64 65 78 88 78 78 77 87 81 82 86 87 74 72 73 82 84 88 93 89 93 90 51 46 52 54 65 65 63 64
100 99 93 92 96 58 42 62 54 50 79 84 74 72 72 71 71 86 88 80 89 87 93 91 91 84 79 70 85 63 71 68 77 78 77 54 55 54 62 60 69 65 63 64
98 97 94 88 87 54 45 54 50 52 82 78 78 81 64 63 66 67 86 88 85 90 87 93 93 79 87 78 76 68 60 61 69 61 58 64 68 63 59 55 54 54 66 70
97 86 89 96 84 56 46 45 46 45 79 88 88 69 70 65 62 67 69 77 79 85 87 89 94 87 86 88 80 81 70 61 69 72 77 70 66 64 60 63 70 71 73 74
84 87 98 87 60 49 46 50 63 52 66 92 93 74 68 65 60 63 63 68 81 86 83 89 88 89 83 88 83 87 76 72 77 78 71 73 70 72 74 76 79 81 82 82
87 97 88 67 47 47 36 56 63 51 53 90 95 70 76 70 64 68 76 78 88 92 86 87 82 69 82 90 89 68 64 60 65 68 56 63 68 86 85 89 90 90 89 84
95 86 66 50 51 48 72 66 70 66 55 90 94 84 75 73 75 83 84 78 90 87 92 88 86 82 81 88 91 64 54 52 62 68 68 77 78 82 82 84 84 86 85 86
93 73 62 54 49 53 63 66 66 68 67 85 90 97 89 74 91 92 90 87 87 92 91 87 84 85 86 90 75 60 55 69 81 80 74 76 76 77 71 81 89 90 88 88
83 60 56 49 47 63 56 62 63 67 65 94 92 93 97 83 92 90 85 88 96 87 88 86 79 84 91 67 65 71 68 65 82 81 80 89 88 85 82 84 82 95 97 97
60 52 57 80 90 61 58 58 69 87 88 89 88 90 94 89 91 82 85 91 93 93 87 84 81 92 74 68 68 57 67 78 78 77 82 86 82 77 81 87 85 89 82 95
56 97 99 98 75 67 82 88 78 84 89 90 94 87 94 83 89 94 85 91 86 94 87 90 96 94 79 70 64 73 80 76 74 73 76 80 81 80 84 82 82 86 91 91
60 77 83 74 87 95 82 91 89 88 87 98 95 93 89 92 85 87 92 88 81 92 87 80 92 77 68 79 81 82 79 73 72 77 82 79 81 81 84 88 88 92 93 96
68 81 94 90 94 87 84 80 88 99 97 98 99 99 95 88 74 85 82 81 88 87 85 84 86 75 85 85 86 87 83 77 76 78 79 80 81 80 85 90 90 91 96 95
89 83 93 85 92 90 80 79 87 94 94 89 94 99 94 86 87 72 85 77 83 79 88 91 84 79 87 90 89 89 89 88 83 86 87 85 86 87 83 80 79 84 96 93
90 78 66 97 85 98 99 99 96 97 78 88 92 94 88 98 84 92 82 83 82 83 87 88 94 85 90 93 93 91 88 88 91 90 87 79 76 81 86 84 78 79 86 90
87 88 97 95 96 99 99 98 94 89 80 91 91 96 93 99 94 98 100 90 93 82 92 94 96 93 90 90 91 90 87 88 90 83 74 72 76 78 73 73 81 81 84 85
89 94 90 93 94 98 99 86 90 81 81 89 91 72 70 94 99 97 90 91 86 92 98 99 92 87 86 89 89 88 87 89 90 87 84 82 78 69 78 88 71 84 85 85

GFSNW_925_rhum_087.txt.gz
RH
84 90 95 96 99 96 99 94 100 96 83 95 95 96 73 67 67 61 61 70 75 67 77 76 84 86 81 60 54 68 71 83 96 82 72 71 73 68 65 80 72 87 77 57
85 87 100 97 99 89 94 96 99 100 100 98 99 71 81 77 70 68 68 65 60 57 65 86 73 77 66 56 58 69 64 83 95 80 66 66 75 71 70 72 77 84 77 57
82 92 97 100 91 100 79 98 99 100 99 90 79 93 92 74 63 66 62 58 52 61 67 66 81 79 71 63 59 64 61 78 72 83 65 75 86 76 74 74 88 76 73 53
84 98 100 100 88 96 75 96 96 85 97 93 91 87 80 62 76 58 57 55 56 64 74 75 85 79 74 67 63 64 63 84 81 67 75 74 74 70 80 84 70 78 61 63
96 89 90 99 98 92 89 97 96 84 87 78 81 88 91 72 69 64 63 63 58 56 69 66 82 81 75 69 64 64 72 92 71 72 68 71 70 65 70 75 72 73 68 68
86 94 93 100 99 99 95 79 75 78 77 83 79 84 89 76 76 77 62 61 73 71 72 66 66 60 68 65 70 73 74 86 89 88 76 66 71 64 68 70 69 66 79 63
94 99 100 97 93 96 85 76 69 83 97 85 79 84 86 77 68 83 78 68 69 71 66 63 58 62 68 66 75 69 79 89 91 96 77 90 57 47 53 64 62 62 64 56
98 100 98 99 99 82 80 66 63 74 96 84 84 80 89 87 86 87 80 76 78 75 60 72 76 80 64 68 74 73 79 90 89 98 95 70 58 48 49 57 62 65 60 56
99 99 96 99 100 77 61 61 62 68 73 83 74 85 78 90 91 86 80 77 80 71 82 74 87 92 76 84 74 76 81 77 76 90 98 85 55 50 45 41 65 64 71 69
97 98 99 93 100 69 49 58 53 59 86 90 81 84 81 82 86 93 80 81 74 69 86 92 88 82 73 91 90 77 90 90 93 90 94 77 58 50 42 57 54 62 62 62
91 100 99 100 94 51 44 61 48 58 93 90 84 82 64 77 83 89 79 78 75 83 82 80 89 84 83 81 76 82 82 91 96 92 96 87 52 46 50 52 66 66 66 66
91 100 99 99 88 56 49 53 57 55 84 86 76 73 73 74 71 90 88 79 85 82 91 90 89 84 82 77 82 70 77 72 80 80 76 58 68 56 68 64 70 67 65 71
98 99 94 97 93 57 56 50 53 52 83 82 82 81 66 64 68 69 86 89 85 90 85 93 91 77 81 79 76 70 63 67 73 66 62 69 68 61 61 60 59 62 74 75
99 98 90 96 84 55 55 46 48 46 79 91 89 70 70 68 68 68 68 78 84 86 88 89 94 88 87 86 77 79 71 66 72 73 77 68 64 64 65 70 74 77 79 77
96 95 95 87 73 57 53 48 55 46 65 94 91 73 69 69 65 67 67 69 80 84 85 88 88 92 86 90 85 89 81 73 77 75 70 74 72 74 76 80 89 90 92 90
87 90 92 81 64 65 51 64 59 47 48 90 97 76 75 70 66 70 78 81 89 92 86 89 85 74 83 90 90 70 71 70 67 67 68 67 74 88 86 88 92 92 94 92
94 75 79 56 51 47 68 70 62 55 51 91 97 97 76 75 78 87 85 80 92 86 92 89 86 83 82 87 90 62 64 56 65 67 77 81 79 84 84 81 74 74 76 85
88 77 60 56 49 58 68 78 71 62 64 83 92 98 88 74 89 90 91 87 87 92 92 88 84 86 85 85 71 65 56 71 77 78 72 74 81 82 76 79 81 87 88 90
83 61 54 49 44 63 60 71 70 68 61 92 89 96 97 84 94 90 88 89 93 90 89 87 76 84 88 64 64 73 69 78 82 84 84 87 87 87 82 80 78 84 81 81
56 52 58 78 73 67 63 67 71 88 90 87 92 91 96 90 92 88 90 92 95 96 86 91 92 92 73 67 64 66 68 72 88 88 88 92 88 85 73 77 81 84 87 87
62 89 97 83 72 70 79 89 82 86 90 91 94 88 93 87 90 95 84 96 94 96 87 91 98 96 79 72 74 69 70 83 82 70 71 80 82 84 78 78 80 81 84 88
63 74 75 76 86 95 74 87 88 86 80 98 95 93 88 92 85 90 95 90 90 94 85 82 96 80 68 79 71 79 84 81 78 77 82 84 84 79 83 79 83 84 86 86
64 81 91 90 94 83 71 76 85 98 99 99 98 98 93 88 82 90 87 86 91 86 85 87 88 73 82 82 83 84 80 76 75 78 81 82 84 83 85 88 86 86 91 88
88 85 65 76 91 90 83 79 85 90 94 94 97 98 93 86 88 85 85 79 89 87 93 89 80 77 84 88 87 88 89 88 86 86 86 88 88 88 84 86 86 86 90 85
83 79 61 93 88 95 97 99 96 98 82 92 95 96 89 98 88 89 91 87 95 85 87 87 91 78 89 91 92 90 88 90 90 88 90 88 82 81 78 73 73 82 85 86
89 94 94 95 96 97 100 98 94 90 88 92 90 95 96 100 90 97 99 89 90 79 92 92 96 92 90 89 90 89 87 86 86 88 89 84 77 78 79 73 67 68 79 88
89 94 91 95 97 97 98 92 88 84 81 85 89 61 66 94 100 96 89 90 83 88 96 99 92 89 88 87 88 88 88 88 87 88 89 87 84 87 81 83 59 61 71 84

GFSNW_925_rhum_090.txt.gz
RH
87 85 85 89 93 93 94 98 100 100 99 100 98 97 74 65 72 68 65 70 71 80 83 88 91 84 78 60 63 76 66 83 99 88 76 74 76 72 65 79 72 87 78 57
80 82 86 96 91 95 97 97 97 100 94 99 98 77 76 76 74 72 70 70 66 56 72 82 78 78 67 61 60 76 66 82 93 83 68 65 76 74 72 72 77 84 77 61
73 79 89 85 99 98 100 97 100 100 99 88 88 92 89 90 70 69 65 60 56 65 69 76 84 82 73 63 62 62 61 78 71 87 66 76 85 79 70 74 86 74 70 53
77 87 86 98 100 99 75 97 98 90 98 97 86 86 85 79 79 63 54 58 58 69 77 77 86 82 73 66 62 69 64 86 83 78 80 75 73 72 80 84 69 77 60 62
83 88 90 99 96 76 80 98 97 85 87 77 90 84 88 70 72 71 67 64 60 57 72 70 84 82 74 66 65 69 73 95 71 76 72 69 68 69 74 79 75 73 68 69
88 95 92 99 85 78 92 88 78 81 91 84 83 94 88 64 76 78 64 61 71 67 67 63 67 67 74 67 66 76 76 84 88 87 78 68 68 62 70 71 72 70 81 67
91 97 99 100 92 80 78 85 77 80 92 77 70 86 82 80 67 81 79 68 66 71 68 62 59 68 71 75 84 70 79 87 90 95 76 80 54 50 54 64 60 65 66 62
99 99 98 98 89 80 74 79 70 80 86 76 81 84 90 88 86 87 83 82 80 75 59 73 75 79 64 72 86 84 76 87 90 96 97 66 56 54 51 58 52 64 67 61
99 95 90 100 91 77 76 68 68 75 87 89 85 89 83 90 91 88 88 82 81 69 78 75 84 88 73 85 77 75 78 76 80 72 99 78 52 51 46 42 61 69 69 71
100 100 99 89 77 64 52 59 59 67 93 94 88 87 83 83 87 95 87 81 73 68 83 89 86 82 72 89 88 72 88 86 90 75 75 80 58 51 43 57 55 64 64 70
95 99 98 84 71 58 48 61 58 66 96 89 86 85 72 80 83 88 83 79 75 82 82 78 87 83 84 82 77 81 80 91 97 91 93 88 53 48 49 52 68 67 68 70
98 95 99 82 66 52 46 51 57 61 84 85 77 76 75 79 74 90 88 78 83 82 91 90 90 86 83 81 86 74 82 76 84 81 77 60 67 59 67 72 73 70 70 73
95 97 96 75 58 49 44 51 52 54 85 79 81 83 67 70 74 72 84 89 84 88 83 92 89 75 80 82 81 74 68 70 76 68 64 65 67 63 62 59 63 75 78 76
100 100 99 87 63 54 52 46 53 51 79 88 85 70 72 72 71 70 70 80 84 87 88 88 93 84 87 83 73 78 74 74 76 74 73 71 68 64 65 76 79 82 83 82
100 98 98 91 79 58 53 50 50 49 63 90 85 73 70 69 68 70 69 70 80 86 85 86 85 93 88 92 87 90 84 76 78 76 67 68 70 76 75 79 88 93 94 93
98 97 92 87 61 54 48 64 56 46 46 87 94 79 76 72 68 71 79 82 89 92 86 89 87 77 83 89 88 69 78 74 67 65 72 71 78 85 84 88 90 88 90 91
94 88 81 70 60 54 72 75 64 53 46 88 96 96 76 76 77 87 85 81 91 84 93 88 85 84 84 87 88 57 74 68 65 73 80 81 85 83 86 82 78 78 81 79
91 82 67 59 60 62 72 77 67 60 63 82 96 96 85 73 88 84 93 85 85 92 92 91 84 87 84 83 70 63 63 74 78 81 72 70 83 87 84 81 82 82 82 77
79 60 60 54 49 66 66 73 76 65 62 91 91 94 93 84 95 92 88 89 86 91 87 86 76 82 86 61 62 75 74 76 79 88 86 88 84 88 87 84 78 82 82 81
60 60 59 73 73 74 70 72 73 87 90 86 93 89 96 87 92 95 89 92 93 94 84 90 93 89 72 64 63 66 72 76 90 91 92 93 91 91 85 80 80 80 81 84
58 77 88 82 81 68 79 89 83 87 93 90 93 88 92 89 91 95 85 95 96 96 88 88 97 96 80 72 72 72 72 82 84 72 69 79 79 87 85 81 78 78 79 80
68 73 73 74 82 91 73 85 89 92 79 98 95 94 88 93 86 92 96 91 91 91 90 92 97 79 69 78 76 73 77 85 85 76 80 82 84 82 84 85 84 82 82 86
74 84 92 95 88 76 73 75 87 99 98 98 98 99 95 95 84 95 87 88 92 86 86 88 86 72 75 81 80 86 85 80 78 79 80 83 84 84 86 87 84 85 89 86
99 99 88 89 93 87 80 77 84 89 94 95 93 98 92 87 90 86 86 80 90 91 97 83 74 78 79 86 84 87 87 84 82 83 84 86 88 88 86 87 86 88 91 85
99 97 83 92 85 94 96 99 97 98 83 92 96 96 86 97 92 87 91 91 98 87 78 81 89 75 88 89 90 87 89 91 91 88 90 89 88 87 82 73 74 75 73 75
94 91 88 94 94 98 99 100 99 94 79 90 90 97 96 98 94 96 93 85 83 73 91 92 94 88 89 88 90 88 87 88 84 83 87 89 90 85 78 77 80 73 66 68
98 94 90 91 96 94 98 93 89 81 85 83 88 60 59 92 100 97 88 86 80 88 92 97 92 88 89 88 89 89 88 87 87 87 88 89 89 90 92 94 82 80 66 66

GFSNW_925_rhum_096.txt.gz
RH
74 68 77 82 88 86 80 89 94 89 100 100 99 92 96 88 68 59 65 59 61 57 66 62 66 66 76 63 60 66 60 63 92 80 61 64 65 59 46 50 54 57 42 49
86 85 84 77 91 85 91 96 85 95 98 100 100 99 98 88 71 66 64 65 57 58 65 69 68 69 67 60 58 62 53 66 78 68 57 54 62 57 52 49 54 72 48 50
89 75 74 83 94 90 91 87 88 99 96 88 77 99 99 89 66 68 61 60 53 57 68 65 74 68 67 63 62 66 49 59 64 63 68 69 73 64 55 56 65 44 46 52
91 94 95 95 87 87 90 94 87 94 100 97 90 92 99 72 76 65 56 58 55 56 69 68 73 68 62 56 59 57 50 88 83 64 61 64 63 65 58 74 54 53 47 45
99 100 100 99 100 98 90 87 93 79 92 90 97 99 93 69 73 71 64 61 59 53 55 54 68 63 59 56 53 57 56 81 67 62 54 54 64 62 64 60 55 54 48 50
99 98 94 92 92 97 84 93 77 64 98 100 94 78 66 61 70 68 62 55 54 57 61 56 54 56 54 54 53 58 58 68 72 74 61 53 52 54 58 61 60 53 48 50
99 97 89 93 92 70 62 79 68 68 98 90 70 67 62 67 68 69 68 59 54 64 53 47 47 51 55 55 62 55 58 63 68 73 58 63 50 48 50 51 55 55 55 52
98 89 77 73 62 61 56 60 62 60 89 86 79 72 65 74 75 77 79 78 72 54 52 57 60 60 58 62 66 60 53 55 68 68 63 54 51 52 50 48 52 59 53 49
77 77 73 67 61 54 49 59 60 56 63 73 76 71 76 77 79 78 83 70 66 57 56 54 70 66 65 70 72 62 54 48 52 69 68 56 46 44 43 41 43 55 54 52
84 82 89 70 61 43 37 53 54 59 70 76 76 72 72 75 72 78 76 68 61 58 56 61 62 62 62 69 70 68 60 57 64 59 64 48 42 46 39 47 43 56 55 54
93 95 77 70 62 57 44 63 57 64 71 76 74 76 74 74 70 64 72 67 59 62 66 60 60 56 61 62 61 60 56 61 63 62 67 63 46 50 44 39 56 54 55 55
89 81 77 72 64 50 39 62 60 61 68 74 79 78 80 81 74 72 72 68 70 64 67 62 63 61 66 61 56 64 64 51 52 54 46 46 47 45 48 49 52 57 54 59
91 85 60 54 55 51 50 54 56 58 65 69 66 68 73 74 79 78 62 69 66 68 70 66 66 61 55 57 56 60 59 56 54 56 50 50 51 54 54 55 54 57 57 60
85 75 65 59 49 37 43 44 50 52 61 70 70 70 70 71 75 77 77 71 75 68 64 64 66 59 62 56 56 58 51 57 53 53 52 58 54 53 51 58 62 64 65 64
86 69 60 56 50 40 38 44 52 47 56 71 72 68 71 70 72 76 77 68 65 66 64 61 60 71 69 71 71 64 55 52 50 42 38 36 42 48 54 62 65 65 68 75
85 69 64 62 58 59 54 55 51 48 53 75 82 70 68 72 70 67 67 68 66 69 65 68 72 69 68 70 63 46 50 50 42 39 47 54 60 52 57 60 68 72 70 72
93 82 84 87 75 63 58 60 60 53 46 70 81 78 66 76 70 70 62 69 69 62 72 68 67 72 76 72 64 37 47 52 55 55 58 67 67 64 65 67 71 78 72 73
97 92 80 68 60 54 64 67 62 59 58 67 83 82 71 70 66 68 75 65 65 71 73 74 66 72 71 72 51 50 53 59 58 60 61 56 57 67 71 70 72 73 70 69
79 70 62 55 50 62 73 74 72 63 62 73 73 80 79 74 80 76 73 71 65 77 67 68 69 64 72 53 46 49 57 62 59 65 68 70 68 72 73 72 73 70 70 68
62 54 56 73 75 74 72 74 74 78 81 78 69 69 78 73 78 79 72 76 67 76 65 76 74 63 50 44 42 40 51 58 65 76 84 81 79 77 73 73 67 67 68 69
58 73 77 75 78 70 73 75 78 75 85 79 76 78 83 80 74 70 73 79 80 79 73 75 71 70 60 56 46 47 52 62 63 63 58 63 60 66 69 72 71 72 72 72
56 64 72 73 77 80 77 81 78 85 71 89 84 82 74 80 78 75 83 80 85 76 79 85 76 56 54 61 59 54 56 64 68 63 63 66 67 67 68 70 73 77 77 78
62 75 90 85 86 88 88 79 82 92 87 91 92 90 83 84 78 83 80 86 82 75 87 69 58 52 59 66 61 60 60 70 70 72 73 74 75 80 78 79 82 81 81 80
99 100 96 92 96 89 79 74 80 81 86 89 82 96 80 75 83 78 84 72 74 91 91 72 45 60 56 69 64 65 69 72 74 72 75 76 80 84 85 86 87 87 89 85
100 100 98 97 77 83 84 91 91 89 78 82 84 86 72 84 88 74 83 92 94 79 66 58 64 62 74 73 72 65 69 73 74 73 76 82 81 82 81 83 84 83 82 82
100 100 99 83 86 86 96 97 93 90 78 78 79 88 89 84 81 95 91 80 73 66 82 75 74 75 78 72 70 68 70 70 73 82 87 86 81 80 81 84 84 84 86 87
99 97 88 78 85 83 83 83 81 77 76 84 82 81 66 83 94 90 76 80 69 76 76 78 76 79 76 74 76 78 78 79 79 79 86 88 90 92 94 88 87 91 86 84

GFSNW_925_rhum_099.txt.gz
RH
77 81 78 85 83 75 82 76 89 92 86 98 100 95 91 95 70 53 57 53 48 42 46 50 50 56 69 65 57 86 65 68 98 72 52 53 57 47 40 46 45 42 44 62
78 83 76 86 83 79 81 85 98 99 82 96 94 96 96 86 65 61 61 60 50 45 50 58 53 59 59 54 54 58 47 57 86 67 52 48 53 44 38 41 53 63 48 55
98 96 90 82 88 79 76 81 100 96 93 84 68 97 100 80 61 62 61 53 44 48 52 50 59 56 60 57 53 64 50 56 68 72 72 64 62 46 40 54 61 38 42 51
99 100 100 84 77 81 82 79 88 84 99 76 74 93 93 62 71 62 56 51 46 46 54 51 58 54 52 49 52 48 44 82 85 52 50 54 54 50 43 59 40 53 42 44
98 94 93 90 83 85 85 78 74 74 76 74 97 92 69 56 64 65 63 54 46 42 49 51 52 51 47 48 44 46 45 78 62 54 46 49 58 51 47 45 39 37 38 43
96 96 81 95 97 85 78 77 63 56 96 95 75 64 56 54 58 58 54 52 43 49 60 48 46 44 43 45 45 46 48 60 68 69 51 47 49 51 50 52 47 38 44 41
97 97 83 82 92 72 63 70 52 56 94 85 62 55 55 59 60 64 56 55 48 57 42 39 39 42 44 45 47 45 47 52 59 67 56 65 51 42 45 46 47 46 46 44
79 94 82 83 72 67 71 77 56 52 80 67 64 56 55 60 57 66 69 68 55 44 47 49 52 51 52 53 53 49 45 46 56 62 49 44 44 44 44 46 46 42 41 42
75 79 85 82 80 70 70 60 60 49 57 66 58 60 57 54 61 62 68 58 52 54 48 47 58 53 56 57 61 50 46 42 46 59 64 54 40 40 36 36 41 43 44 40
75 66 73 70 60 48 53 67 57 50 53 60 64 55 50 59 60 60 62 58 56 55 48 53 54 49 53 54 55 57 53 50 58 50 56 40 37 40 33 44 49 44 42 44
82 71 66 65 45 54 44 63 56 61 55 66 62 63 62 60 59 54 61 60 55 55 58 54 49 44 46 50 48 50 48 52 55 49 58 58 37 42 38 41 44 46 46 48
81 82 73 68 66 54 44 59 62 67 57 65 69 72 72 71 66 66 62 60 59 57 58 52 48 47 48 45 42 52 56 42 44 44 42 39 37 39 38 38 45 47 47 47
80 77 76 62 52 52 49 62 62 62 58 62 60 61 66 73 73 75 61 54 56 57 62 53 53 53 45 44 40 42 44 44 48 49 33 40 40 41 41 43 43 46 45 49
83 79 64 52 41 38 46 58 52 63 52 63 65 65 62 70 74 77 71 65 62 55 54 50 52 51 49 41 48 47 38 48 43 43 38 44 43 40 40 47 49 52 52 52
85 69 66 54 42 38 38 41 45 49 63 65 65 61 64 66 68 72 74 68 58 58 58 54 50 54 56 53 59 50 39 40 46 36 28 31 30 37 40 49 55 54 56 62
84 80 65 57 56 60 60 56 48 46 59 71 83 61 58 62 61 59 59 60 56 60 59 55 56 62 61 58 48 34 30 32 30 29 35 37 47 38 42 48 52 53 55 55
74 70 66 72 78 64 65 58 61 49 41 64 85 79 59 66 60 58 54 58 58 56 62 63 57 63 70 64 54 29 32 36 36 41 48 56 52 51 48 48 54 64 60 61
88 80 81 86 72 56 63 61 59 52 57 58 87 84 66 64 60 63 62 57 57 61 60 64 61 64 65 70 44 33 33 38 42 44 43 48 44 49 53 56 61 66 63 61
100 80 61 56 53 57 72 67 69 61 68 72 71 81 82 64 66 63 63 60 64 67 64 63 62 58 75 56 40 35 40 47 49 47 53 55 58 58 61 61 63 62 59 58
77 60 56 66 70 66 64 80 71 76 76 71 69 56 71 64 65 68 63 64 58 81 59 67 70 64 48 42 38 31 35 42 47 63 74 68 66 66 63 62 58 57 56 59
57 65 68 85 73 77 64 72 74 69 84 72 64 60 74 67 66 61 61 75 73 79 68 68 68 60 52 39 37 35 35 43 50 50 49 54 51 58 57 58 58 60 61 62
55 64 67 77 76 75 87 82 75 83 71 77 76 71 64 70 65 61 73 79 79 79 70 73 74 49 45 49 47 39 39 46 52 52 54 53 53 52 55 58 63 65 66 65
56 74 96 84 86 91 87 82 79 84 78 83 81 80 71 77 75 67 73 89 81 66 78 70 59 50 48 52 50 44 44 52 57 61 59 59 62 66 65 72 74 73 72 70
96 100 98 98 96 89 78 65 83 77 81 84 73 84 72 65 80 67 87 64 67 82 84 74 51 46 42 57 54 52 56 60 63 69 70 70 75 77 77 79 81 82 83 81
100 98 96 96 76 84 88 94 81 81 70 78 79 81 65 80 85 69 78 88 89 70 68 63 69 55 63 65 62 55 60 63 64 66 72 78 74 74 74 77 78 77 77 77
100 100 100 86 92 98 92 93 91 82 73 74 77 86 86 86 76 85 86 75 73 69 82 83 67 64 68 64 60 58 61 64 68 75 86 82 73 71 68 75 78 79 80 80
100 99 88 81 87 86 76 72 67 66 76 90 91 86 75 79 85 80 67 79 76 86 80 74 66 69 68 63 66 70 68 67 70 83 88 85 82 83 81 78 81 84 80 78

GFSNW_925_rhum_102.txt.gz
RH
86 78 72 73 70 73 76 73 90 90 74 93 95 100 97 89 66 51 57 54 44 42 43 55 61 71 72 62 78 96 77 93 97 68 56 52 60 52 46 78 62 68 86 92
94 92 81 75 78 76 72 97 98 86 82 87 90 97 84 82 65 59 60 56 46 45 55 64 57 58 61 51 57 65 55 72 94 70 61 53 55 44 45 59 78 68 86 85
96 99 99 81 70 71 80 87 99 93 92 82 65 91 88 71 62 59 55 51 41 47 49 48 57 58 59 58 52 64 63 66 82 90 79 68 69 51 47 66 78 64 67 64
94 93 98 98 75 70 84 79 86 74 94 79 74 80 76 54 66 56 53 49 46 48 52 53 59 52 53 52 45 50 55 83 83 53 53 57 58 55 49 58 50 70 58 57
94 86 92 96 83 76 84 75 72 65 73 74 74 80 66 55 61 67 57 54 46 52 62 58 56 49 52 55 41 45 48 81 62 56 48 52 61 55 56 56 44 47 48 54
93 88 90 90 86 75 73 71 59 57 84 80 66 59 59 58 60 58 53 55 54 64 65 50 45 43 46 48 55 52 54 72 81 76 59 57 68 58 55 53 56 46 59 52
88 77 81 91 84 69 64 66 57 65 88 77 58 52 56 60 66 67 59 62 59 58 47 47 38 43 45 48 51 47 55 57 75 86 68 79 58 43 46 50 50 49 52 46
75 65 78 74 68 81 85 74 68 66 77 66 61 52 61 56 57 68 68 68 61 53 56 57 55 59 55 54 54 54 52 59 68 88 74 46 49 48 46 50 51 42 52 54
76 58 67 76 75 79 77 68 58 68 68 73 55 54 53 56 61 67 65 58 53 56 61 54 62 71 57 58 58 49 50 48 63 79 78 63 50 43 35 37 56 49 42 50
77 67 68 76 76 73 73 64 56 72 63 62 63 62 64 60 60 72 63 59 58 56 68 67 72 61 51 63 57 56 61 58 68 71 74 57 45 44 36 52 61 49 42 49
80 71 61 54 56 48 59 61 56 73 68 69 62 63 67 64 67 67 68 68 65 66 72 68 58 55 57 59 48 52 55 62 72 61 67 75 45 43 45 52 50 49 53 50
98 76 71 58 67 53 53 62 58 62 74 77 66 69 69 72 71 81 65 67 69 79 79 68 58 61 54 50 56 53 67 52 62 54 63 44 43 45 41 45 54 51 58 52
91 76 72 67 47 40 45 60 57 62 73 72 69 66 65 66 69 73 82 67 64 64 69 74 73 65 56 60 56 41 47 47 61 53 43 48 45 46 42 44 48 51 55 54
82 74 70 60 42 34 47 58 50 62 68 90 75 62 63 64 68 72 72 71 65 64 68 70 73 70 53 56 56 59 48 54 56 54 45 44 44 47 51 50 52 56 56 57
81 68 64 64 56 49 49 37 42 48 76 91 79 60 62 63 65 70 72 71 74 76 78 76 74 68 66 64 72 76 55 60 60 61 43 47 41 49 47 59 63 64 64 65
87 67 66 68 56 59 65 74 50 42 64 93 97 66 59 61 60 60 62 64 66 77 81 78 71 66 75 83 73 47 41 39 39 40 36 48 46 42 48 59 64 64 66 67
86 78 67 61 65 70 69 67 51 42 44 86 96 96 66 64 61 64 67 63 74 74 83 81 74 77 79 86 85 44 39 40 40 49 56 56 50 54 54 57 61 61 60 62
80 70 71 78 82 64 66 58 51 46 54 71 96 94 76 64 76 79 72 75 74 78 82 76 78 80 83 93 65 46 36 42 46 54 50 52 57 58 60 63 72 74 74 71
94 89 86 59 56 67 76 63 59 54 67 94 88 94 93 71 76 77 76 75 84 81 84 84 77 84 90 69 58 51 48 49 54 54 60 58 65 68 69 73 76 78 75 70
100 66 64 78 74 65 66 71 88 92 86 82 94 72 89 77 79 80 77 77 85 92 84 82 88 82 56 53 54 48 46 50 58 70 76 74 74 76 76 75 74 73 68 68
66 75 80 76 64 74 79 90 93 88 96 91 83 79 92 74 84 82 77 91 90 96 87 85 92 89 69 50 43 46 46 50 57 59 63 65 69 73 74 74 71 66 64 70
58 68 66 72 84 90 93 92 89 90 88 88 91 84 77 82 77 78 84 92 91 94 81 88 94 69 52 48 47 47 49 52 60 62 66 67 67 68 70 71 73 68 64 64
55 75 100 95 95 99 98 91 94 94 91 93 92 93 89 86 89 86 86 96 95 74 92 90 79 61 51 56 55 49 54 60 64 66 65 62 64 58 64 76 68 69 71 70
94 93 99 96 94 94 90 90 96 93 95 93 88 93 91 81 93 84 98 80 76 94 96 83 65 56 53 64 58 57 65 69 72 76 76 80 80 79 72 72 73 75 78 75
100 100 94 92 89 96 98 99 95 91 86 88 91 94 83 94 94 86 89 91 97 87 82 76 86 65 65 71 65 65 74 79 82 78 82 86 85 86 85 79 78 77 78 79
100 100 99 91 97 99 99 98 100 92 86 86 94 92 96 93 90 94 94 91 88 74 88 94 89 71 74 74 68 66 73 76 83 84 85 82 81 82 80 76 75 75 75 76
100 99 95 94 97 98 97 92 87 77 89 96 97 96 80 89 97 97 85 89 80 94 89 93 77 77 77 72 70 75 77 81 84 88 85 82 76 74 78 86 84 82 80 77

GFSNW_925_rhum_105.txt.gz
RH
95 96 92 73 70 76 73 78 96 77 75 93 94 95 95 80 78 54 60 58 54 44 50 64 85 85 83 79 78 96 85 92 99 74 55 57 64 70 53 83 65 84 90 99
88 89 96 98 67 77 89 97 97 70 80 97 93 82 77 80 68 63 67 60 49 46 62 67 64 72 67 68 66 66 63 82 94 77 62 59 71 55 52 64 74 83 90 100
89 91 89 85 69 72 81 94 93 92 93 88 82 83 84 72 65 66 60 62 45 49 55 55 60 65 61 57 54 60 62 70 80 94 79 73 74 61 57 66 86 82 98 95
92 90 82 87 74 70 84 91 90 81 95 89 83 82 81 72 76 63 59 53 61 60 72 61 62 54 54 56 48 48 60 79 82 57 57 59 64 67 64 65 63 73 83 72
93 87 83 83 82 67 84 85 88 79 76 78 76 78 66 72 68 68 70 73 65 70 76 71 72 61 62 64 56 51 60 78 67 62 56 58 63 61 64 59 56 61 63 64
89 78 80 86 80 65 82 72 69 73 80 87 84 67 64 70 66 60 65 70 65 74 71 68 66 50 53 51 56 64 60 78 84 79 59 62 72 61 61 59 61 55 68 57
70 66 79 82 70 78 98 78 76 77 84 85 73 57 62 69 69 71 69 71 66 60 60 58 50 46 52 56 59 57 65 66 84 88 68 81 58 45 48 57 54 57 58 55
64 55 71 65 72 83 89 74 72 84 84 76 69 59 66 61 66 71 70 69 65 64 63 66 64 67 59 59 57 56 59 69 73 85 88 53 55 51 52 52 52 50 68 73
70 52 56 58 64 68 75 77 60 84 78 82 68 63 62 70 73 75 68 60 61 60 72 66 65 77 60 64 60 53 55 58 73 79 81 66 47 45 38 38 57 50 59 72
78 64 57 56 58 58 64 64 59 79 80 76 70 74 74 68 69 82 69 62 64 60 80 75 77 68 54 69 64 62 68 66 73 77 82 64 44 45 38 46 42 54 52 66
88 76 58 56 59 52 55 62 62 73 83 80 68 68 74 76 80 81 73 70 69 77 76 76 72 65 63 60 54 55 65 73 77 74 75 74 49 43 49 47 54 52 56 61
88 82 62 58 66 56 51 66 58 62 76 78 67 68 68 70 72 87 80 73 75 83 89 80 73 68 68 64 66 56 62 60 63 66 66 50 51 43 42 57 60 59 61 68
88 86 69 67 46 38 44 54 57 66 83 81 76 71 63 65 67 70 85 79 80 77 76 84 81 69 70 70 72 57 56 58 62 54 44 52 51 49 46 48 57 59 59 64
90 79 67 50 38 37 45 50 48 61 80 92 79 62 64 62 64 70 73 75 73 73 82 82 82 78 63 69 58 68 56 59 63 66 55 46 48 56 54 53 60 60 61 59
83 75 58 56 53 54 46 37 43 48 73 90 84 65 62 62 64 69 72 74 80 87 86 81 80 81 73 78 78 89 61 64 64 63 53 48 45 52 56 62 68 69 69 68
79 66 56 58 58 65 66 75 45 41 63 92 92 73 64 62 61 62 67 74 76 83 87 87 84 72 74 88 90 65 62 53 45 47 42 49 41 52 58 60 70 72 72 72
87 75 67 63 64 70 74 69 52 43 44 86 86 94 74 64 63 72 76 69 82 82 89 87 83 79 80 91 79 55 50 51 49 44 56 52 50 52 60 62 70 68 67 68
90 80 71 69 74 77 69 64 55 50 51 78 92 89 77 68 84 84 83 82 84 84 84 85 83 84 86 93 71 61 44 42 50 58 50 47 53 62 66 70 77 78 80 78
84 76 80 76 64 69 71 67 60 59 68 91 91 84 82 77 85 87 80 86 88 85 87 90 86 88 92 71 67 62 61 52 49 60 61 64 64 69 74 81 83 81 82 80
94 91 66 80 71 65 64 71 85 93 88 87 95 86 89 84 87 85 86 87 89 93 83 82 91 93 66 55 50 52 55 55 56 70 74 73 74 76 81 77 76 76 77 80
81 76 81 79 67 70 87 92 95 92 97 94 89 86 92 81 87 86 83 92 94 95 79 87 92 92 67 50 52 46 42 55 58 54 53 60 64 71 76 83 82 79 74 77
66 69 67 72 85 93 92 94 91 93 86 93 90 84 83 82 84 82 88 89 93 94 82 92 94 66 59 58 56 53 58 57 58 66 66 70 72 73 73 77 82 75 67 67
56 73 95 86 88 100 97 88 98 99 94 96 93 94 85 86 88 92 88 96 96 79 96 90 77 68 51 55 58 60 59 61 64 70 68 70 73 71 73 80 70 68 70 68
90 88 98 94 97 95 90 86 86 87 96 93 90 96 92 89 95 90 93 82 83 98 100 82 68 66 66 66 68 63 64 68 73 75 77 76 79 78 70 69 70 74 79 76
94 99 98 98 89 96 97 99 95 95 92 92 92 95 85 95 93 92 92 95 98 87 76 74 81 79 77 72 73 67 70 79 79 81 82 83 82 83 85 77 75 74 76 78
100 100 99 95 96 99 100 99 98 95 89 93 94 96 100 95 93 98 98 90 87 70 89 84 88 74 73 76 74 69 76 83 83 84 84 84 85 87 85 83 80 78 77 78
100 99 95 92 97 93 96 89 92 90 90 94 96 96 76 87 100 100 90 90 81 87 90 90 82 83 82 79 76 74 78 84 86 86 85 84 81 81 84 88 82 77 76 77

GFSNW_925_rhum_108.txt.gz
RH
76 70 81 84 62 69 62 77 88 55 65 92 93 94 93 80 79 63 66 68 48 45 61 82 97 98 84 72 75 92 88 86 96 76 57 60 66 73 65 80 86 85 96 99
83 79 71 77 61 75 85 94 96 54 75 93 95 80 78 79 76 71 70 63 53 47 61 75 78 76 64 70 81 76 82 83 92 67 56 59 74 63 58 66 73 91 92 100
94 87 69 73 67 69 78 89 85 87 92 91 84 84 81 72 63 71 64 66 52 52 65 60 63 66 59 58 60 58 62 73 80 88 76 72 77 69 63 67 87 92 97 97
91 91 73 72 65 61 75 90 87 82 98 88 85 81 80 74 78 67 64 67 74 60 75 65 72 62 60 53 57 55 56 78 80 61 61 59 62 72 66 74 72 71 86 80
92 92 81 68 59 55 75 88 85 85 87 80 84 78 68 74 72 66 71 76 71 73 80 77 76 70 62 63 58 55 65 77 71 62 59 62 60 64 67 68 69 78 76 70
86 91 84 71 53 69 81 78 77 75 83 87 86 72 66 70 70 63 66 70 67 68 68 68 68 67 61 56 57 64 63 78 83 67 67 64 57 60 63 62 61 65 78 63
75 94 89 68 70 64 71 75 82 80 85 88 84 73 70 71 75 71 68 70 60 59 65 64 60 54 54 56 57 61 67 71 85 83 68 66 49 49 49 58 56 56 59 60
88 84 80 70 66 59 56 62 65 83 86 85 73 72 68 68 71 73 73 65 65 70 62 66 65 67 60 55 58 56 63 73 77 84 87 54 50 50 54 52 56 57 67 72
73 71 69 61 58 54 55 60 57 82 77 78 72 77 67 74 76 78 69 60 61 62 74 68 66 74 62 65 63 53 61 67 73 84 80 65 42 47 42 36 60 54 69 76
66 66 66 63 61 56 52 58 54 75 87 80 71 78 79 74 76 86 80 70 70 64 81 77 80 70 57 66 67 60 70 70 76 80 86 68 49 47 39 48 42 60 68 70
70 70 71 68 59 58 61 58 57 68 86 79 69 71 75 78 82 86 75 72 69 78 74 78 77 73 66 66 59 58 65 77 82 80 79 68 52 46 50 45 57 55 62 71
80 74 65 58 63 55 57 61 61 64 76 76 68 64 61 63 69 86 85 77 78 86 90 85 81 71 76 68 66 54 71 63 65 71 69 50 54 42 44 58 60 60 63 68
82 76 61 63 62 47 49 56 61 70 83 83 79 80 65 68 63 60 85 84 81 78 79 87 86 80 73 75 77 58 54 61 67 57 49 55 52 49 47 61 59 60 61 70
86 81 70 64 44 43 54 55 53 68 83 93 79 65 64 62 65 69 68 70 75 80 87 85 86 82 68 75 64 68 56 59 63 69 62 57 54 56 52 55 60 63 63 67
86 87 71 52 44 49 44 39 42 50 68 87 84 70 63 63 64 71 75 76 81 88 88 86 82 85 80 84 84 93 68 63 57 58 53 50 46 49 56 59 68 68 68 68
88 78 63 50 55 61 68 74 49 46 67 90 87 76 68 64 64 69 80 84 85 87 89 90 89 77 76 87 90 67 65 57 51 45 44 52 44 46 59 57 70 72 70 68
83 76 60 55 62 65 73 74 56 47 50 82 80 87 76 65 66 77 81 73 83 84 90 92 86 80 83 89 78 51 55 58 57 57 50 54 52 50 60 60 67 68 68 67
89 68 64 66 71 76 74 70 61 54 53 78 84 82 76 69 86 86 87 86 87 86 84 88 85 86 89 95 67 57 55 58 55 50 59 47 46 55 61 66 79 81 80 81
93 81 75 78 80 72 70 71 64 59 64 86 92 81 74 81 87 89 84 87 88 87 90 89 83 87 92 68 66 61 59 56 54 51 60 63 62 60 69 77 82 80 82 85
90 80 87 86 73 71 63 72 83 92 87 91 97 86 92 85 89 87 86 90 87 92 85 85 94 91 72 63 57 56 60 58 60 60 64 72 74 71 76 81 76 69 74 81
89 84 86 85 72 68 87 92 96 92 98 97 90 88 93 85 87 85 86 92 93 92 77 88 93 92 74 60 58 55 57 59 59 56 47 58 62 67 73 82 83 82 80 81
82 70 68 72 84 94 94 96 93 99 89 95 94 90 78 87 87 83 89 90 93 94 82 91 93 71 59 63 57 55 60 62 61 60 58 65 68 69 72 76 83 81 72 72
67 74 96 87 89 97 100 86 98 98 92 97 96 96 87 91 87 94 87 95 96 80 98 85 78 61 62 63 68 65 64 65 71 69 69 67 70 70 74 83 75 73 74 70
90 87 94 93 97 94 88 81 85 85 93 92 90 98 89 89 95 90 85 79 86 98 100 81 68 58 53 76 73 78 71 68 80 75 75 74 79 84 76 73 71 74 79 75
100 98 97 98 85 95 95 95 95 97 84 88 92 96 86 97 93 93 91 97 99 91 76 72 75 56 74 73 74 80 78 75 83 79 79 79 80 85 84 78 74 72 75 78
100 99 99 96 97 98 99 99 94 95 82 90 92 98 98 92 92 100 95 91 89 70 89 86 82 66 72 76 76 81 80 79 85 85 86 83 84 86 85 85 81 78 77 80
100 99 97 92 96 92 91 86 87 85 86 91 95 94 80 90 100 97 88 89 78 82 83 90 74 71 74 82 87 85 81 79 83 84 86 86 83 84 89 92 88 82 78 75

GFSNW_925_rhum_111.txt.gz
RH
91 92 78 54 48 54 45 74 81 44 57 89 94 97 90 80 80 67 71 70 46 49 72 97 96 99 86 70 76 88 86 88 98 74 58 63 74 86 74 97 87 88 97 99
91 91 84 61 52 57 60 90 90 47 57 92 97 82 76 77 76 74 71 65 58 50 64 76 87 83 64 73 84 83 81 84 92 62 56 60 72 65 61 72 79 94 92 98
82 87 85 70 48 55 62 85 86 89 92 89 84 92 82 76 65 69 68 69 58 60 70 65 66 67 58 69 78 73 61 76 77 88 76 70 75 72 68 72 89 84 93 91
83 87 86 79 51 54 52 92 88 84 97 89 86 82 80 81 84 70 68 64 77 72 71 70 76 68 64 54 60 63 58 74 80 62 62 62 62 73 72 78 73 68 86 84
87 84 84 76 50 59 69 90 86 88 89 82 83 77 73 80 80 77 74 75 74 76 75 75 76 78 66 64 60 57 68 82 73 55 60 65 57 65 66 71 78 84 80 72
94 71 79 76 51 66 74 87 82 74 83 84 80 79 76 77 78 63 69 76 74 70 70 69 69 70 72 68 62 67 66 79 80 67 67 60 52 56 62 62 61 75 79 66
79 68 70 72 72 66 61 72 81 81 81 84 81 74 71 74 76 83 75 72 66 61 72 69 66 69 65 61 58 67 68 75 86 86 67 52 40 52 50 60 56 57 59 65
63 80 68 74 69 60 50 61 69 83 84 82 73 71 69 69 68 69 74 66 66 76 67 67 65 66 57 54 57 61 67 75 74 84 86 53 45 55 57 59 59 56 61 66
70 75 68 70 63 60 52 55 61 79 85 83 65 74 69 77 77 78 65 63 61 64 74 71 68 70 65 61 60 55 66 71 74 83 77 51 36 46 45 39 63 56 66 74
70 69 72 73 76 71 60 55 53 69 85 79 74 79 76 78 82 88 82 76 74 67 82 80 84 76 60 68 70 63 72 75 77 79 90 68 48 47 40 52 42 55 66 72
69 68 67 66 70 74 71 61 59 67 85 80 75 70 77 83 86 86 74 72 71 82 76 80 81 77 71 75 62 59 63 75 82 82 84 67 50 46 48 44 55 59 70 74
78 73 66 63 60 57 63 64 63 66 74 76 69 65 62 67 66 84 86 74 82 91 93 89 87 74 79 71 74 57 69 66 65 73 70 51 50 50 44 54 58 53 60 68
83 82 76 60 60 66 62 60 63 68 83 83 79 76 59 61 64 72 81 89 78 85 82 91 89 84 79 77 80 62 55 63 70 60 47 57 57 53 54 50 59 55 60 65
81 85 79 61 66 53 50 62 59 65 83 94 80 67 65 61 61 65 73 79 76 82 88 86 87 83 70 79 64 67 55 64 69 73 63 59 57 57 53 51 62 59 63 68
82 92 82 71 62 44 52 55 48 60 71 83 81 73 66 65 65 66 72 76 82 89 88 89 89 87 85 87 88 95 74 66 67 60 48 44 46 41 51 58 60 68 69 64
98 92 87 73 48 57 66 78 53 50 65 89 82 74 71 70 70 74 82 84 88 89 90 90 90 82 80 90 92 69 72 63 51 50 48 53 47 50 50 59 61 68 73 69
92 92 80 55 57 64 72 75 50 46 53 79 78 83 79 69 70 82 86 80 86 87 90 94 88 84 86 91 93 55 60 61 61 60 52 58 56 51 47 59 59 62 69 67
91 87 75 57 64 72 76 72 70 56 55 76 83 79 76 72 89 89 90 90 90 89 88 90 90 87 91 96 74 69 66 65 65 63 62 49 51 53 59 62 75 80 81 80
93 72 64 75 79 80 75 76 72 64 65 83 89 82 73 84 91 91 91 89 91 88 93 92 89 90 96 76 70 68 66 60 54 52 57 63 71 60 61 73 82 77 80 84
97 80 84 96 75 75 73 79 82 91 86 90 94 82 92 88 92 93 90 92 89 94 88 90 99 93 73 72 64 66 59 63 68 74 68 71 74 76 68 74 71 68 67 76
94 92 95 90 80 68 82 90 95 92 99 94 92 86 95 88 90 88 87 92 93 94 79 91 94 95 78 59 59 59 58 60 64 67 62 59 60 62 69 74 78 80 80 81
89 84 78 76 84 94 92 97 94 98 87 95 94 92 82 90 87 84 96 90 93 94 86 96 98 75 61 58 55 59 63 68 70 67 70 67 62 60 65 71 78 82 75 76
91 89 97 97 95 99 100 99 100 100 94 96 97 95 89 95 88 93 89 95 95 81 97 89 80 62 55 59 62 68 66 72 72 75 79 78 76 69 71 76 73 75 80 74
98 99 98 97 98 96 89 80 84 85 92 93 90 97 89 89 95 90 87 80 88 100 100 86 69 63 46 53 69 71 66 76 78 80 84 83 82 80 74 74 70 80 86 79
100 100 97 98 86 96 94 94 95 97 81 85 90 95 86 97 97 92 90 100 98 94 81 75 76 52 53 61 61 67 79 82 82 82 86 86 82 83 81 77 78 79 80 83
100 100 99 97 93 99 99 98 99 96 81 87 88 92 92 88 92 100 93 88 87 74 89 86 79 60 59 65 71 75 80 82 82 83 87 86 84 85 83 84 85 84 82 85
99 98 94 88 95 85 94 93 94 80 76 93 92 92 78 91 100 97 87 85 78 83 84 89 72 59 59 68 74 76 78 80 78 79 82 88 86 86 90 91 90 87 84 80

GFSNW_925_rhum_117.txt.gz
RH
81 84 84 80 65 59 42 60 78 40 44 86 93 96 86 78 75 71 71 75 60 70 89 84 94 95 80 74 77 87 84 90 98 82 66 73 87 94 92 95 96 92 93 98
94 80 83 81 66 65 64 77 73 42 46 86 94 75 74 76 76 76 72 71 67 58 72 75 84 84 66 77 83 85 80 91 96 62 61 60 73 76 77 73 82 88 85 95
99 93 79 83 65 66 56 80 72 82 93 87 79 83 79 75 68 71 70 74 68 66 72 69 73 74 61 75 78 74 75 82 80 88 70 71 76 69 72 80 95 82 83 96
99 97 78 76 64 62 58 90 88 84 86 84 81 77 76 80 80 72 72 67 80 80 77 70 78 75 72 63 61 73 69 82 83 77 72 67 71 68 77 85 75 74 77 95
97 95 69 73 60 59 65 81 88 89 89 85 69 74 78 80 76 77 71 72 77 70 74 74 78 77 74 69 68 64 72 82 75 73 59 65 71 61 72 74 80 82 83 81
67 86 73 72 62 60 74 90 74 69 85 82 73 75 78 75 78 64 70 74 78 68 65 71 73 73 73 71 75 75 74 81 85 77 68 64 57 57 67 67 68 76 80 64
71 66 89 73 62 67 72 78 68 69 72 84 75 74 72 78 70 73 70 74 73 58 72 75 79 84 87 87 83 80 74 76 86 90 67 49 35 53 54 61 62 74 62 63
68 96 85 73 66 60 63 76 68 78 73 82 76 76 73 69 66 72 75 66 65 74 64 67 63 62 54 63 66 84 78 79 80 86 87 49 36 45 59 64 53 64 69 62
68 78 83 76 63 58 54 61 66 72 80 68 64 76 71 78 75 72 71 62 67 63 75 69 60 58 63 63 61 73 76 75 76 89 76 41 20 40 51 47 65 44 64 63
67 80 76 75 66 60 55 56 55 66 78 77 73 78 77 77 79 81 82 71 70 66 80 78 87 76 66 71 65 60 76 83 88 85 88 67 45 46 45 52 30 37 59 64
53 70 79 74 70 64 63 63 59 63 81 76 76 69 78 86 86 80 68 72 74 84 74 84 82 85 78 77 69 65 69 83 88 88 89 69 54 50 52 46 44 52 57 68
60 67 76 77 69 68 62 63 62 62 71 73 63 62 58 58 62 82 88 74 78 84 91 91 88 87 89 79 75 61 69 60 56 72 66 50 54 50 47 46 48 49 55 62
96 37 78 80 74 70 64 62 62 68 86 84 80 78 64 64 63 62 79 88 80 86 84 90 88 89 82 84 88 68 62 65 70 57 43 56 51 53 57 52 54 49 55 56
99 82 38 86 89 79 70 71 59 66 82 97 78 69 70 66 65 64 69 74 83 83 89 88 89 87 77 85 71 74 57 66 68 76 61 49 48 57 54 55 58 61 62 62
100 97 43 68 93 95 80 77 60 59 66 89 84 66 72 71 73 74 74 75 84 90 91 92 92 89 87 90 93 98 76 70 65 61 48 49 50 42 44 50 51 53 60 64
99 100 72 46 95 100 84 79 66 63 65 86 86 69 77 82 81 82 84 83 89 90 91 92 91 83 84 90 93 72 77 67 56 51 53 56 52 55 55 52 55 55 58 65
100 100 82 62 95 100 69 82 57 59 57 82 87 86 80 77 82 90 93 92 92 91 93 98 91 89 91 95 86 60 70 66 68 68 64 70 65 65 58 58 59 57 60 62
100 99 85 98 100 95 70 69 46 52 62 74 92 87 66 78 92 93 94 96 95 94 92 94 97 94 96 98 78 62 58 62 69 71 74 64 65 72 68 66 67 69 67 67
100 98 100 99 87 87 78 70 67 59 72 92 91 89 77 84 93 94 95 94 98 92 99 97 95 95 97 82 78 78 73 68 54 58 61 64 72 68 66 69 72 75 68 70
100 98 94 99 90 83 81 95 97 98 96 97 98 73 76 86 95 98 95 97 98 100 94 96 100 91 73 72 71 70 69 68 59 43 37 47 59 64 66 69 67 68 67 67
99 99 99 100 98 92 98 99 99 98 99 98 94 74 87 86 93 92 91 95 96 100 86 98 97 95 82 70 73 67 76 68 59 53 52 61 68 68 69 72 78 77 76 77
94 96 98 98 99 100 99 97 96 98 93 97 98 91 76 94 84 84 97 95 96 98 91 99 99 72 63 58 56 60 64 57 53 58 64 70 72 75 82 87 86 83 76 74
98 97 100 100 99 98 97 95 97 98 97 97 97 99 90 96 92 87 92 99 96 88 99 95 80 62 55 59 56 48 57 59 62 64 66 68 77 77 84 89 82 82 84 77
100 98 98 98 98 96 92 88 87 85 96 92 84 97 89 86 94 84 94 83 89 100 100 86 62 65 56 58 54 56 53 59 60 62 65 70 79 84 77 76 78 83 86 78
99 99 98 97 88 96 95 95 96 98 81 81 88 94 83 95 92 89 90 99 99 97 84 73 75 58 61 56 62 63 60 60 63 66 70 75 78 82 80 68 76 80 82 84
99 99 99 98 95 98 100 98 96 92 75 86 90 92 98 88 91 100 95 93 92 75 86 82 74 63 61 56 62 62 62 65 67 72 77 74 75 76 76 76 74 74 83 88
98 98 100 91 94 88 92 84 87 74 73 88 92 97 84 91 97 100 87 86 78 83 83 84 68 60 54 61 63 65 67 69 71 70 67 69 65 73 86 87 68 74 82 86

GFSNW_925_rhum_120.txt.gz
RH
94 95 80 64 52 50 43 60 69 39 42 77 79 82 74 74 67 65 65 63 54 66 72 70 77 74 64 58 66 81 72 78 89 67 57 60 71 80 69 81 88 78 72 79
65 99 83 69 52 58 48 66 65 42 46 79 77 67 68 66 65 67 66 64 59 52 67 70 70 69 60 62 70 70 66 82 84 56 59 60 70 65 65 60 69 79 71 71
47 100 83 67 51 55 50 52 73 66 71 66 59 68 70 66 64 64 63 62 59 58 61 60 62 59 58 66 66 72 68 71 67 61 52 57 64 55 54 63 82 62 56 78
37 79 77 66 51 52 50 65 73 75 73 68 64 64 66 65 64 62 59 58 64 65 57 57 56 61 57 60 59 67 69 81 76 60 52 54 59 54 53 78 64 68 51 63
38 71 66 65 53 52 65 56 57 64 69 67 61 66 62 64 67 64 59 57 61 60 57 53 55 62 59 54 56 58 61 77 67 61 51 59 61 47 49 58 58 60 57 57
40 70 52 66 52 58 75 88 72 46 79 69 57 50 59 62 68 60 61 60 64 58 54 53 52 53 54 58 62 60 62 67 70 65 48 48 46 38 44 52 53 49 59 43
46 64 62 70 57 55 60 75 60 46 52 62 54 62 64 66 64 64 60 65 64 52 58 62 66 67 67 66 65 62 62 62 69 75 53 48 29 47 42 47 46 49 49 44
55 77 74 68 62 52 58 68 64 53 49 53 59 64 63 61 62 66 65 56 54 59 55 51 45 42 48 57 62 66 64 60 58 60 53 31 27 36 49 52 38 39 45 41
62 76 76 70 64 56 52 58 60 62 48 45 52 60 61 55 58 56 61 55 62 58 56 53 51 34 45 44 50 59 65 63 61 64 62 33 18 33 42 44 42 37 42 41
81 76 77 73 67 60 55 54 55 64 62 55 57 57 58 58 60 57 62 63 66 61 58 59 59 48 54 49 49 59 66 65 73 61 59 36 28 42 43 40 22 33 42 43
95 60 81 78 72 64 62 61 59 58 64 58 64 58 62 71 65 53 58 65 68 66 67 62 55 59 54 59 50 48 47 52 61 61 67 59 38 46 42 36 35 42 44 45
96 81 73 80 77 70 66 63 63 62 66 61 59 58 56 54 56 55 70 64 64 58 64 67 63 62 64 54 40 52 54 35 32 42 36 36 36 42 38 41 40 39 43 41
92 100 59 79 82 76 71 61 61 66 75 68 72 64 62 62 61 59 58 71 66 74 70 66 67 68 58 57 57 52 46 47 45 47 29 38 34 32 32 33 37 36 39 41
94 98 98 51 88 85 78 69 65 59 75 80 66 68 69 65 66 65 66 70 78 72 69 68 70 69 58 55 52 53 36 49 44 46 37 36 34 34 35 37 39 44 42 43
100 95 100 82 70 98 94 80 73 60 60 73 71 65 69 72 73 80 74 75 73 75 78 75 74 65 68 63 72 65 48 42 40 36 30 27 27 31 37 41 42 39 41 41
100 98 99 98 68 100 100 79 69 76 64 74 81 69 75 83 85 83 81 78 75 76 76 75 68 69 66 71 65 42 50 40 35 32 34 35 35 40 41 46 45 44 45 44
100 100 100 100 69 98 74 76 65 70 63 75 84 83 75 82 85 85 83 88 79 77 78 84 74 76 76 80 68 33 42 46 44 41 45 47 47 46 45 47 43 44 45 47
100 100 100 100 84 99 99 76 52 71 62 75 93 88 63 80 85 87 85 87 86 84 77 83 84 82 85 95 59 46 39 39 48 49 49 44 44 51 42 43 47 50 46 42
100 100 100 100 100 100 89 78 68 63 82 98 98 87 79 79 87 86 89 83 96 82 92 88 81 79 94 72 62 55 56 55 50 51 54 57 54 42 41 43 44 50 50 51
100 99 98 100 96 93 89 98 98 99 98 99 96 70 72 78 87 91 88 88 87 94 82 84 96 82 63 60 58 52 54 56 53 46 45 46 49 47 42 46 48 54 59 61
99 99 99 100 100 97 99 99 99 98 100 98 93 75 80 76 84 81 81 88 90 98 82 91 93 87 69 54 53 49 46 56 55 42 41 39 42 46 49 51 56 63 67 66
94 94 99 99 100 100 100 99 97 99 87 94 96 88 68 82 79 82 93 88 92 97 82 96 95 74 58 54 54 58 63 56 54 49 45 44 50 56 58 63 69 72 74 75
98 97 100 99 99 98 98 96 96 94 86 93 93 96 85 91 86 84 88 99 94 77 94 92 74 58 52 54 52 49 53 60 54 51 53 56 57 65 70 69 71 78 80 77
99 98 97 97 98 94 89 79 83 77 86 91 82 91 83 80 90 79 95 74 78 94 99 85 56 46 48 50 51 50 50 52 57 56 59 59 66 67 66 70 71 77 80 77
99 100 96 98 88 88 88 88 86 90 78 80 83 84 73 88 90 83 84 95 98 82 78 68 70 56 59 52 53 51 50 54 58 57 59 62 58 59 59 64 66 72 75 79
100 99 99 98 97 95 95 91 89 87 76 78 84 89 94 91 84 96 94 85 89 75 82 75 68 55 58 48 48 52 52 51 55 61 70 64 64 64 62 67 68 64 72 80
99 97 100 96 94 85 84 76 76 72 76 88 94 97 88 89 91 96 79 85 78 82 78 71 70 60 53 47 48 56 58 56 57 60 66 68 62 68 74 71 55 63 71 78

GFSNW_925_rhum_123.txt.gz
RH
41 96 70 43 46 48 42 50 55 38 46 73 63 73 60 64 59 56 55 53 47 54 55 55 60 62 56 50 58 67 62 67 82 62 47 50 55 64 72 98 97 82 76 76
42 89 84 50 42 50 57 41 43 50 55 72 65 59 60 57 57 56 55 53 50 47 55 59 56 56 52 53 60 60 58 70 78 61 52 50 64 54 56 56 65 78 85 67
69 62 77 65 44 47 58 39 66 55 45 47 45 58 59 58 58 54 52 51 50 51 51 49 51 50 51 55 58 71 64 64 66 68 48 48 55 48 50 56 82 65 54 44
84 42 60 66 51 49 58 47 51 57 66 48 46 51 51 53 55 54 50 50 50 48 47 45 44 44 44 50 64 59 62 76 75 59 49 44 46 48 45 61 62 63 44 44
86 50 61 51 58 52 55 42 43 48 49 52 51 57 51 48 52 52 48 51 45 45 45 36 39 45 43 39 51 51 54 72 57 59 34 44 52 45 45 43 42 52 50 49
86 61 62 49 55 59 54 64 53 46 64 52 47 36 40 47 52 49 49 46 48 46 43 42 42 42 41 43 46 48 52 61 60 61 38 43 37 26 32 35 37 44 52 38
87 62 57 66 62 58 61 62 47 38 32 43 37 45 49 50 53 55 47 52 52 50 45 43 49 51 50 48 49 49 52 54 58 70 51 54 27 39 39 30 32 38 39 35
86 69 73 66 59 57 74 65 51 41 35 36 38 45 47 48 49 57 53 44 43 47 47 44 34 36 44 49 51 54 54 53 56 60 45 31 21 28 38 44 32 28 36 34
84 82 73 69 62 56 60 57 54 47 39 34 36 42 42 43 38 42 50 48 51 51 46 44 45 30 33 33 47 50 54 56 60 48 59 35 21 30 33 38 35 30 33 32
88 90 70 73 70 63 58 57 52 55 51 39 43 38 41 42 41 42 46 52 62 55 46 49 46 38 42 41 39 58 61 61 71 60 58 39 24 35 38 40 29 32 34 34
98 88 81 80 76 70 66 69 55 67 53 47 49 46 48 53 51 37 51 58 61 61 58 48 43 44 39 48 33 36 42 48 54 49 55 64 30 43 38 31 31 34 36 36
99 93 95 69 84 78 72 71 62 60 64 56 58 51 49 48 44 42 47 49 53 44 53 51 42 48 44 38 30 37 44 28 26 34 36 26 27 27 27 32 33 31 32 33
100 100 94 92 79 89 80 67 62 66 64 57 70 59 58 56 56 58 50 46 46 60 59 51 48 54 39 41 41 32 34 28 41 35 23 25 23 26 27 25 27 27 29 30
100 100 97 98 76 92 91 79 65 62 66 74 58 60 65 63 65 66 63 60 66 61 60 60 59 53 39 39 34 42 25 38 36 33 28 28 28 26 25 26 30 33 35 36
100 100 100 97 97 78 99 93 83 66 66 83 65 54 65 72 74 74 71 64 61 67 71 71 65 50 60 52 54 55 32 36 36 30 21 22 22 26 29 31 33 34 38 38
100 100 100 100 100 79 100 97 87 87 65 81 86 62 66 78 78 72 73 68 64 65 70 65 57 54 58 62 60 36 28 30 27 26 25 24 25 31 32 34 37 38 38 37
100 100 100 100 100 86 91 84 73 68 77 77 89 82 71 76 77 76 74 75 71 68 76 76 66 67 72 73 66 30 26 29 31 30 29 35 36 38 38 41 41 36 34 35
100 100 100 100 100 98 100 94 68 80 62 75 96 94 67 74 76 81 74 77 78 79 77 77 79 66 74 91 54 38 35 31 31 35 35 34 29 36 42 40 35 39 38 35
94 100 100 100 99 100 92 91 81 74 80 99 99 92 92 76 76 75 84 75 90 73 95 85 75 74 90 70 61 46 38 38 38 37 37 42 48 46 44 33 35 39 39 44
92 99 98 100 99 96 90 97 98 99 98 99 99 75 71 69 77 84 78 80 80 88 76 72 96 79 54 48 45 46 39 39 43 56 60 59 57 49 34 32 35 40 45 52
100 99 99 100 100 97 99 100 100 99 100 98 97 76 73 68 77 76 74 84 84 95 80 90 86 83 65 48 46 40 39 40 44 44 35 37 33 30 33 38 42 47 50 57
94 94 98 99 100 100 100 99 100 99 96 99 98 86 62 75 70 75 86 90 88 94 77 93 92 66 53 50 51 48 51 49 45 45 42 40 39 40 42 47 54 58 61 64
99 96 100 100 99 98 97 95 100 98 85 85 93 95 83 84 80 85 99 98 90 68 87 85 69 57 51 46 46 44 46 58 55 52 48 41 42 51 54 59 60 62 65 66
100 99 98 96 97 92 88 78 84 72 78 88 80 88 85 96 97 100 97 80 71 86 90 80 52 46 45 43 48 44 44 58 62 57 56 53 59 59 57 58 59 62 67 67
100 100 97 97 80 88 91 99 82 79 71 79 85 84 77 94 99 96 97 94 92 74 73 67 72 54 56 53 52 43 44 46 51 50 53 58 55 55 55 52 52 58 64 67
100 100 100 97 95 96 94 95 91 80 73 77 89 98 97 97 96 96 91 87 84 77 83 78 78 60 51 49 49 43 44 44 49 56 73 63 54 53 50 52 55 57 62 68
100 95 93 96 96 92 80 76 69 67 79 97 100 98 92 95 96 94 74 83 77 82 80 72 66 62 55 48 48 49 53 47 48 56 64 64 55 56 63 70 61 60 62 64

GFSNW_925_rhum_126.txt.gz
RH
71 44 48 46 43 42 46 54 80 46 48 90 72 90 59 62 57 54 53 55 46 51 51 51 55 56 54 48 56 63 66 66 82 69 53 52 66 76 80 95 99 99 99 88
83 47 51 44 45 57 61 56 49 44 48 91 76 60 60 56 58 54 55 52 49 44 53 62 53 55 55 54 59 67 60 69 92 69 58 51 62 58 61 65 82 92 92 87
80 76 42 51 44 51 60 60 84 82 53 50 52 60 58 58 58 53 50 49 49 49 51 49 54 48 55 53 57 67 66 64 76 90 64 59 63 56 57 66 93 75 74 64
78 83 52 51 44 50 61 58 63 61 88 54 46 52 50 52 58 57 49 50 51 47 49 44 47 41 50 56 70 61 68 81 77 74 63 60 60 56 52 69 66 78 63 58
82 80 70 49 46 50 66 67 56 56 52 51 51 59 55 50 48 51 50 58 41 44 50 42 48 44 41 42 62 56 61 86 70 75 55 53 61 52 50 48 50 58 58 61
90 78 66 62 49 57 58 55 48 59 66 54 50 47 40 46 51 48 48 52 51 49 50 55 50 50 49 48 50 60 59 78 79 84 62 64 61 42 45 47 45 47 56 43
93 80 66 69 62 61 72 59 53 53 52 54 48 43 44 50 53 57 46 49 54 55 46 48 50 56 57 54 54 51 61 63 75 89 75 77 43 38 39 46 37 39 40 44
98 88 74 65 60 58 76 67 63 56 56 44 38 38 46 44 49 61 54 48 44 48 51 59 49 49 51 53 55 57 59 68 76 88 74 56 39 36 40 46 42 33 37 40
100 97 84 67 66 57 61 63 53 63 61 49 33 40 42 53 48 44 52 47 49 53 62 52 57 50 36 51 65 49 58 65 79 82 78 67 26 32 33 38 59 34 36 38
99 100 89 75 71 67 60 67 53 63 69 49 41 49 51 46 47 51 47 58 68 59 67 70 68 54 40 51 48 80 79 75 90 88 87 64 31 39 40 49 32 38 37 37
99 100 99 89 73 76 68 75 59 66 72 62 49 46 54 60 59 50 62 66 70 77 75 65 60 56 51 53 41 53 70 82 87 80 78 78 41 46 50 38 34 37 40 38
99 100 100 95 86 84 81 75 68 60 74 71 58 49 43 46 49 53 57 58 58 64 74 70 60 58 55 53 53 37 48 41 45 56 59 37 43 37 38 37 40 38 39 40
100 100 100 100 96 83 92 78 70 65 79 75 75 72 57 50 49 48 60 59 51 63 71 78 69 71 54 60 57 40 40 36 49 39 34 28 28 35 34 35 43 36 35 38
100 100 100 100 100 95 93 94 76 65 72 90 74 61 59 56 61 58 55 63 64 65 72 79 86 78 52 57 51 51 38 39 43 47 35 31 28 27 28 33 32 33 36 40
99 99 100 100 100 100 96 100 92 71 66 93 86 58 60 62 64 70 68 67 70 80 86 91 88 70 63 66 68 64 44 41 46 35 27 30 28 27 28 31 37 39 42 47
100 99 100 100 100 100 100 99 90 94 77 88 99 69 71 75 74 72 74 73 74 81 88 86 74 59 68 84 81 48 43 36 29 29 27 30 31 32 32 35 38 40 43 46
99 98 99 100 100 100 94 91 78 90 82 91 99 97 75 74 75 77 80 73 80 82 86 90 83 80 78 91 76 42 39 37 34 32 31 35 39 38 40 42 42 44 40 39
85 87 94 100 100 100 100 90 76 90 78 88 99 97 82 78 90 93 81 90 88 89 89 86 93 81 88 97 56 44 44 41 38 35 36 35 36 37 46 46 46 42 46 44
72 90 90 97 100 100 99 90 92 89 88 99 98 96 95 83 83 91 91 84 93 83 98 95 91 90 97 73 59 53 51 51 47 42 43 46 49 49 52 51 41 44 45 46
90 95 100 99 99 98 95 99 99 100 99 99 99 92 90 82 88 92 90 88 85 97 89 80 98 84 63 52 49 50 49 49 49 55 57 56 58 62 60 50 40 41 45 51
99 100 99 100 100 99 99 100 99 99 99 98 97 93 86 77 91 89 83 95 91 92 89 93 92 91 68 49 48 46 45 43 44 50 52 50 55 58 56 40 42 47 51 59
99 97 98 98 100 100 99 98 98 99 96 98 98 94 75 84 78 86 96 98 96 96 95 98 94 77 57 55 54 56 57 55 50 44 45 49 42 38 41 45 51 55 56 61
100 96 100 99 99 98 98 97 98 99 99 98 96 97 88 86 86 96 99 98 96 82 94 87 82 67 56 51 52 52 48 52 60 61 56 49 43 44 50 56 56 58 63 62
100 100 98 97 98 94 92 91 93 88 94 93 86 96 95 98 99 99 98 94 97 97 99 89 71 55 52 54 52 50 44 55 70 65 62 53 58 60 53 54 54 61 65 59
100 100 96 97 85 97 100 98 94 93 83 85 95 97 95 99 99 99 99 97 96 89 85 78 77 58 62 55 55 54 47 51 64 61 60 60 57 58 59 53 52 54 58 60
100 100 99 95 96 96 99 99 100 89 81 91 98 99 99 98 97 98 96 97 91 82 86 86 86 67 61 54 52 52 47 48 54 60 74 66 59 56 51 48 49 52 53 56
100 96 88 89 96 96 96 92 88 74 88 98 99 98 95 96 98 98 98 94 85 91 88 78 65 66 65 61 57 54 53 50 50 55 63 65 56 51 56 59 50 48 49 53

GFSNW_925_rhum_129.txt.gz
RH
68 73 47 52 46 37 43 67 65 48 58 85 90 93 68 64 60 55 66 60 52 56 54 59 60 60 59 54 63 70 64 64 86 75 57 64 71 80 83 93 96 96 95 90
79 69 70 42 49 56 58 73 62 55 58 88 83 65 64 62 63 64 60 60 52 48 57 68 56 57 60 58 64 66 69 84 96 76 64 59 64 72 76 78 82 89 94 84
86 72 73 53 48 50 58 73 77 79 72 69 69 64 63 68 59 57 53 56 52 54 58 53 59 60 62 62 62 65 66 78 80 87 68 68 75 67 69 77 98 87 85 74
84 84 71 56 46 46 67 76 71 70 86 66 54 56 58 58 67 61 55 57 57 57 59 53 60 46 68 62 70 67 78 88 84 80 76 74 75 73 67 81 75 82 64 70
88 85 74 52 51 47 67 70 67 68 66 57 55 61 64 57 54 58 60 63 53 49 57 53 54 50 47 56 80 72 76 86 77 84 68 68 78 69 68 63 58 68 63 63
94 87 78 58 56 55 72 56 53 66 67 61 66 66 49 54 54 52 53 55 55 55 54 57 56 57 56 56 67 74 78 85 82 89 70 76 70 59 52 55 55 53 64 51
99 96 84 62 60 57 72 68 63 66 61 74 63 46 46 55 58 58 52 55 59 52 49 54 56 68 68 67 68 62 70 73 81 92 78 70 37 40 39 46 45 45 44 41
99 100 93 74 63 56 62 71 70 74 71 60 48 44 50 48 54 58 58 54 53 54 50 66 60 55 58 59 67 69 66 76 86 92 86 60 44 44 44 48 44 43 44 40
98 100 99 86 68 64 55 63 58 76 76 60 41 43 46 58 63 55 60 57 55 55 68 62 64 56 43 56 68 56 67 72 84 94 86 72 29 31 37 41 43 41 42 43
98 97 100 99 82 71 64 63 58 65 80 71 41 50 54 51 53 56 58 66 68 64 82 78 80 64 40 49 67 86 76 67 85 77 90 80 52 36 41 25 13 40 41 40
100 98 99 100 96 79 75 67 69 58 84 80 51 45 51 58 61 55 55 61 74 86 84 81 74 67 56 54 54 83 88 94 91 77 90 88 47 49 32 27 36 38 42 43
99 95 99 100 100 91 83 78 70 65 68 66 60 52 46 43 45 56 61 60 72 77 82 84 72 65 67 65 62 46 60 64 77 75 72 47 48 39 43 41 40 38 44 45
96 98 97 100 100 100 89 88 73 66 83 79 76 69 56 54 51 45 62 68 57 68 76 85 79 73 68 70 70 46 42 42 49 39 34 38 35 38 42 38 45 42 43 43
100 97 96 100 100 100 100 99 84 67 76 92 76 62 61 55 57 56 54 62 65 72 80 80 86 84 65 66 56 58 43 44 48 50 35 33 28 28 28 35 39 43 42 39
92 93 87 92 98 100 100 100 96 79 67 92 89 66 60 57 56 61 65 67 75 85 87 92 96 84 70 70 75 65 47 39 45 35 25 29 25 29 28 32 37 41 42 42
100 100 98 97 97 100 100 100 98 94 78 92 99 78 73 73 71 74 78 78 80 85 89 91 84 71 71 89 94 48 36 34 32 31 24 26 26 31 34 34 38 40 45 48
82 93 95 94 97 100 96 92 81 96 92 98 99 99 81 77 79 84 86 79 84 86 89 95 90 85 81 94 81 40 37 36 37 35 35 39 37 36 41 41 40 45 46 47
72 78 80 78 86 99 100 96 87 100 90 97 100 97 86 80 96 97 88 96 91 90 92 92 95 89 90 96 65 49 45 43 41 39 41 39 36 40 43 47 53 53 50 46
56 77 88 87 97 100 99 94 96 100 93 98 99 98 94 88 92 94 92 90 99 86 98 98 94 95 96 76 62 56 51 54 50 51 53 53 56 50 53 58 60 53 51 44
79 94 88 99 99 99 100 100 99 100 99 100 99 93 96 92 94 98 95 96 91 98 91 89 99 86 67 61 54 50 50 51 55 64 62 62 61 62 60 59 56 50 48 46
92 97 99 100 100 100 99 100 99 99 99 99 98 93 88 85 94 92 87 98 98 97 92 93 96 95 71 56 55 50 48 50 51 50 50 52 53 54 61 65 59 51 47 53
97 98 99 100 99 99 99 98 98 98 94 98 96 91 86 85 81 88 99 98 98 96 96 98 96 77 62 59 57 56 56 58 61 59 57 53 59 58 56 59 55 50 46 52
96 97 100 99 98 98 97 96 98 98 95 99 99 99 90 88 87 98 99 98 97 97 98 91 84 69 62 56 54 51 54 52 54 58 62 64 60 48 46 50 48 49 59 58
100 99 98 97 97 97 92 92 91 88 97 96 90 97 93 98 99 98 99 93 97 97 97 92 76 63 55 56 56 58 54 53 53 66 70 72 59 53 49 48 53 60 65 58
99 99 97 98 88 97 95 93 95 94 91 91 98 99 98 99 99 98 99 97 96 92 86 80 81 59 62 62 57 55 56 54 52 62 66 62 56 54 54 54 55 56 54 57
100 99 98 95 99 92 96 100 99 94 90 98 99 99 99 98 98 98 97 96 93 82 88 88 86 74 73 70 58 56 58 56 54 59 73 68 63 57 54 50 54 54 55 57
99 98 91 96 96 92 97 95 98 90 99 99 99 98 94 96 98 98 93 94 87 87 92 87 69 73 73 64 65 66 63 54 54 52 58 67 63 57 55 60 54 53 54 52